K5VW Weather Reports


time (UTC)temp
C
wind
direction
speed
KPH
gust
KPH
rain 1hr
cm
rain 24hr
cm
rain mn
cm
humidity
%
barometer
mb
20260510165537 21 338 19.3 38.6 0.00 0.00 0.00 52 1015.1
20260510165436 21 27 19.3 38.6 0.00 0.00 0.00 52 1015.1
20260510165334 21 22 19.3 38.6 0.00 0.00 0.00 52 1015.1
20260510165233 21 55 19.3 37.0 0.00 0.00 0.00 52 1015.0
20260510165126 21 10 19.3 45.1 0.00 0.00 0.00 52 1015.1
20260510165026 21 171 19.3 45.1 0.00 0.00 0.00 51 1015.0
20260510164921 21 340 17.7 45.1 0.00 0.00 0.00 51 1015.0
20260510164900 21 76 17.7 45.1 0.00 0.00 0.00 51 1015.0
20260510164827 21 76 17.7 45.1 0.00 0.00 0.00 51 1015.0
20260510164720 21 57 17.7 45.1 0.00 0.00 0.00 51 1015.1
20260510164609 21 83 17.7 45.1 0.00 0.00 0.00 51 1015.1
20260510164510 21 329 17.7 45.1 0.00 0.00 0.00 52 1015.1
20260510164411 21 45 17.7 45.1 0.00 0.00 0.00 51 1015.1
20260510164312 21 63 17.7 45.1 0.00 0.00 0.00 51 1015.1
20260510164210 21 355 16.1 45.1 0.00 0.00 0.00 51 1015.0
20260510164106 21 303 17.7 41.8 0.00 0.00 0.00 52 1015.0
20260510164005 21 340 17.7 41.8 0.00 0.00 0.00 52 1015.0
20260510163905 21 47 17.7 41.8 0.00 0.00 0.00 52 1014.9
20260510163804 21 22 19.3 41.8 0.00 0.00 0.00 52 1014.9
20260510163653 21 29 19.3 41.8 0.00 0.00 0.00 53 1014.9
20260510163556 21 55 20.9 41.8 0.00 0.00 0.00 53 1014.9
20260510163459 21 49 20.9 41.8 0.00 0.00 0.00 53 1014.9
20260510163355 21 18 22.5 41.8 0.00 0.00 0.00 53 1014.8
20260510163242 21 331 22.5 41.8 0.00 0.00 0.00 52 1014.7
20260510163137 21 327 22.5 41.8 0.00 0.00 0.00 52 1014.7
20260510163043 21 48 24.1 41.8 0.00 0.00 0.00 52 1014.7
20260510162943 21 44 24.1 41.8 0.00 0.00 0.00 53 1014.7
20260510162838 21 30 24.1 41.8 0.00 0.00 0.00 52 1014.7
20260510162734 21 345 22.5 40.2 0.00 0.00 0.00 52 1014.7
20260510162635 21 331 22.5 40.2 0.00 0.00 0.00 52 1014.3
20260510162535 21 346 22.5 40.2 0.00 0.00 0.00 52 1014.3
20260510162435 21 317 22.5 38.6 0.00 0.00 0.00 52 1014.4
20260510162337 21 303 20.9 38.6 0.00 0.00 0.00 52 1014.4
20260510162237 21 52 20.9 38.6 0.00 0.00 0.00 53 1014.3
20260510162134 21 28 19.3 38.6 0.00 0.00 0.00 52 1014.3
20260510162031 21 343 19.3 38.6 0.00 0.00 0.00 51 1014.3
20260510161926 21 83 19.3 38.6 0.00 0.00 0.00 51 1014.3
20260510161817 21 36 17.7 38.6 0.00 0.00 0.00 51 1014.3
20260510161712 21 283 16.1 38.6 0.00 0.00 0.00 50 1014.3
20260510161616 21 55 16.1 37.0 0.00 0.00 0.00 50 1014.4
20260510161510 21 51 16.1 33.8 0.00 0.00 0.00 50 1014.4
20260510161412 21 330 16.1 33.8 0.00 0.00 0.00 51 1014.4
20260510161314 21 9 14.5 33.8 0.00 0.00 0.00 52 1014.4
20260510161214 21 355 14.5 33.8 0.00 0.00 0.00 53 1013.3
20260510161112 21 42 14.5 33.8 0.00 0.00 0.00 53 1013.3
20260510161012 21 42 14.5 33.8 0.00 0.00 0.00 53 1013.3
20260510160908 20 68 16.1 37.0 0.00 0.00 0.00 53 1013.2
20260510160809 20 345 16.1 37.0 0.00 0.00 0.00 53 1013.1
20260510160709 20 71 19.3 37.0 0.00 0.00 0.00 53 1013.1
20260510160608 20 336 19.3 46.7 0.00 0.00 0.00 52 1013.1
20260510160501 20 55 19.3 46.7 0.00 0.00 0.00 52 1013.1
20260510160356 20 49 19.3 46.7 0.00 0.00 0.00 52 1013.1
20260510160302 20 53 20.9 46.7 0.00 0.00 0.00 53 1013.0
20260510160159 20 22 22.5 46.7 0.00 0.00 0.00 54 1013.0
20260510160101 20 67 24.1 48.3 0.00 0.00 0.00 54 1013.0
20260510155948 20 66 24.1 48.3 0.00 0.00 0.00 54 1012.9
20260510155845 20 82 24.1 48.3 0.00 0.00 0.00 54 1012.9
20260510155741 19 12 24.1 48.3 0.00 0.00 0.00 54 1012.8
20260510155640 19 66 24.1 48.3 0.00 0.00 0.00 54 1013.3
20260510155538 19 24 25.7 48.3 0.00 0.00 0.00 55 1013.4
20260510155440 19 70 24.1 48.3 0.00 0.00 0.00 55 1013.4
20260510155340 20 84 25.7 48.3 0.00 0.00 0.00 54 1013.4
20260510155240 20 46 24.1 48.3 0.00 0.00 0.00 53 1013.4
20260510155139 20 41 24.1 48.3 0.00 0.00 0.00 52 1013.4
20260510155041 20 43 22.5 48.3 0.00 0.00 0.00 52 1013.5
20260510154937 20 53 24.1 48.3 0.00 0.00 0.00 52 1013.5
20260510154833 20 18 24.1 48.3 0.00 0.00 0.00 51 1013.5
20260510154735 20 37 24.1 48.3 0.00 0.00 0.00 51 1013.5
20260510154629 20 41 22.5 45.1 0.00 0.00 0.00 51 1013.7
20260510154530 20 20 22.5 45.1 0.00 0.00 0.00 51 1013.7
20260510154434 20 11 22.5 45.1 0.00 0.00 0.00 52 1013.7
20260510154325 20 126 24.1 45.1 0.00 0.00 0.00 51 1013.7
20260510154223 20 342 22.5 45.1 0.00 0.00 0.00 51 1014.2
20260510154126 20 28 24.1 38.6 0.00 0.00 0.00 51 1014.2
20260510154024 20 163 24.1 46.7 0.00 0.00 0.00 51 1014.2
20260510153926 20 321 24.1 48.3 0.00 0.00 0.00 50 1014.2
20260510153816 20 41 24.1 48.3 0.00 0.00 0.00 50 1014.2
20260510153718 20 316 25.7 48.3 0.00 0.00 0.00 50 1014.2
20260510153618 20 30 27.4 49.9 0.00 0.00 0.00 50 1014.2
20260510153514 20 46 27.4 49.9 0.00 0.00 0.00 50 1014.2
20260510153423 20 327 29.0 49.9 0.00 0.00 0.00 50 1014.2
20260510153318 20 341 29.0 49.9 0.00 0.00 0.00 50 1014.2
20260510153217 20 313 29.0 49.9 0.00 0.00 0.00 50 1014.3
20260510153120 20 315 30.6 49.9 0.00 0.00 0.00 50 1014.3
20260510153018 20 329 30.6 49.9 0.00 0.00 0.00 50 1014.3
20260510152917 20 16 30.6 49.9 0.00 0.00 0.00 51 1014.3
20260510152816 20 324 29.0 49.9 0.00 0.00 0.00 50 1014.3
20260510152715 20 348 29.0 49.9 0.00 0.00 0.00 50 1013.7
20260510152612 20 317 29.0 49.9 0.00 0.00 0.00 50 1013.7
20260510152512 20 0 29.0 46.7 0.00 0.00 0.00 50 1013.5
20260510152406 20 317 27.4 46.7 0.00 0.00 0.00 50 1013.5
20260510152307 20 305 29.0 46.7 0.00 0.00 0.00 50 1013.5
20260510152204 20 327 29.0 48.3 0.00 0.00 0.00 50 1013.5
20260510152104 20 327 29.0 48.3 0.00 0.00 0.00 50 1013.5
20260510152002 20 36 29.0 48.3 0.00 0.00 0.00 51 1013.5
20260510151901 20 11 29.0 48.3 0.00 0.00 0.00 51 1013.5
20260510151801 20 30 29.0 48.3 0.00 0.00 0.00 51 1013.4
20260510151657 20 11 29.0 48.3 0.00 0.00 0.00 51 1013.4
20260510151557 20 111 29.0 48.3 0.00 0.00 0.00 51 1013.3
20260510151501 20 325 29.0 48.3 0.00 0.00 0.00 51 1013.3
20260510151357 20 317 29.0 48.3 0.00 0.00 0.00 51 1013.3
20260510151254 20 44 29.0 48.3 0.00 0.00 0.00 51 1013.2
20260510151156 20 343 29.0 46.7 0.00 0.00 0.00 51 1012.7
20260510151055 20 277 27.4 46.7 0.00 0.00 0.00 50 1012.7
20260510151001 20 42 25.7 46.7 0.00 0.00 0.00 50 1012.8
20260510150854 20 34 25.7 46.7 0.00 0.00 0.00 50 1012.8
20260510150752 20 69 25.7 46.7 0.00 0.00 0.00 50 1012.8
20260510150639 20 333 25.7 46.7 0.00 0.00 0.00 50 1012.8
20260510150535 20 311 27.4 46.7 0.00 0.00 0.00 50 1012.8
20260510150443 20 315 27.4 46.7 0.00 0.00 0.00 50 1012.8
20260510150337 20 57 29.0 54.7 0.00 0.00 0.00 50 1012.8
20260510150239 20 322 29.0 54.7 0.00 0.00 0.00 50 1012.7
20260510150137 20 9 29.0 54.7 0.00 0.00 0.00 50 1012.7
20260510150038 20 347 29.0 54.7 0.00 0.00 0.00 50 1012.7
20260510145941 20 59 29.0 54.7 0.00 0.00 0.00 50 1012.6
20260510145840 20 42 29.0 54.7 0.00 0.00 0.00 50 1012.6
20260510145735 20 30 27.4 54.7 0.00 0.00 0.00 50 1012.3
20260510145709 20 345 29.0 54.7 0.00 0.00 0.00 50 1012.3
20260510145629 20 345 29.0 54.7 0.00 0.00 0.00 50 1012.3
20260510145520 20 321 27.4 54.7 0.00 0.00 0.00 50 1012.3
20260510145426 20 20 27.4 54.7 0.00 0.00 0.00 49 1012.3
20260510145351 20 202 27.4 51.5 0.00 0.00 0.00 49 1012.3
20260510145217 20 342 27.4 51.5 0.00 0.00 0.00 49 1012.3
20260510145116 20 340 27.4 51.5 0.00 0.00 0.00 49 1012.3
20260510145010 20 29 27.4 51.5 0.00 0.00 0.00 49 1012.3
20260510144911 20 24 27.4 51.5 0.00 0.00 0.00 48 1012.3
20260510144810 20 60 27.4 51.5 0.00 0.00 0.00 48 1012.3
20260510144711 19 300 27.4 51.5 0.00 0.00 0.00 48 1012.3
20260510144609 20 327 27.4 51.5 0.00 0.00 0.00 48 1012.3
20260510144509 20 13 27.4 49.9 0.00 0.00 0.00 48 1012.3
20260510144413 20 344 27.4 49.9 0.00 0.00 0.00 48 1012.3
20260510144313 20 95 29.0 49.9 0.00 0.00 0.00 48 1012.3
20260510144207 20 15 29.0 49.9 0.00 0.00 0.00 47 1012.1
20260510144058 20 305 29.0 46.7 0.00 0.00 0.00 48 1012.1
20260510143955 20 300 29.0 46.7 0.00 0.00 0.00 48 1012.1
20260510143854 20 26 30.6 46.7 0.00 0.00 0.00 48 1012.1
20260510143743 20 331 30.6 48.3 0.00 0.00 0.00 48 1012.1
20260510143638 20 16 30.6 48.3 0.00 0.00 0.00 48 1012.1
20260510143536 20 325 29.0 48.3 0.00 0.00 0.00 48 1012.1
20260510143437 20 332 30.6 48.3 0.00 0.00 0.00 48 1012.1
20260510143339 20 344 29.0 48.3 0.00 0.00 0.00 48 1012.1
20260510143246 20 344 27.4 48.3 0.00 0.00 0.00 48 1012.1
20260510143135 20 336 27.4 48.3 0.00 0.00 0.00 48 1012.1
20260510143036 20 313 27.4 48.3 0.00 0.00 0.00 48 1012.1
20260510142938 20 332 27.4 48.3 0.00 0.00 0.00 48 1012.1
20260510142841 20 18 27.4 48.3 0.00 0.00 0.00 48 1012.2
20260510142748 20 13 25.7 45.1 0.00 0.00 0.00 48 1012.2
20260510142639 20 260 27.4 45.1 0.00 0.00 0.00 48 1011.9
20260510142539 20 46 27.4 45.1 0.00 0.00 0.00 48 1011.9
20260510142500 20 75 27.4 45.1 0.00 0.00 0.00 48 1011.8
20260510142336 20 11 27.4 45.1 0.00 0.00 0.00 48 1011.8
20260510142238 20 327 27.4 45.1 0.00 0.00 0.00 48 1011.8
20260510142134 20 351 27.4 45.1 0.00 0.00 0.00 48 1011.8
20260510142035 20 336 27.4 45.1 0.00 0.00 0.00 48 1011.8
20260510141943 20 317 25.7 45.1 0.00 0.00 0.00 48 1011.8
20260510141832 20 319 25.7 45.1 0.00 0.00 0.00 48 1011.7
20260510141725 20 318 25.7 45.1 0.00 0.00 0.00 48 1011.7
20260510141628 20 16 25.7 45.1 0.00 0.00 0.00 48 1011.7
20260510141520 20 331 24.1 45.1 0.00 0.00 0.00 48 1011.7
20260510141426 20 319 24.1 45.1 0.00 0.00 0.00 48 1011.8
20260510141317 20 355 22.5 45.1 0.00 0.00 0.00 48 1011.8
20260510141220 20 325 24.1 45.1 0.00 0.00 0.00 48 1011.1
20260510141114 20 19 24.1 45.1 0.00 0.00 0.00 48 1011.1
20260510141019 20 66 24.1 45.1 0.00 0.00 0.00 48 1011.1
20260510140916 20 102 25.7 45.1 0.00 0.00 0.00 48 1011.1
20260510140809 20 346 27.4 54.7 0.00 0.00 0.00 48 1011.1
20260510140718 20 351 27.4 54.7 0.00 0.00 0.00 48 1011.1
20260510140616 20 63 27.4 54.7 0.00 0.00 0.00 48 1011.1
20260510140508 20 318 29.0 54.7 0.00 0.00 0.00 48 1011.1
20260510140413 20 338 30.6 54.7 0.00 0.00 0.00 48 1011.1
20260510140313 20 44 30.6 54.7 0.00 0.00 0.00 47 1011.1
20260510140249 20 346 32.2 54.7 0.00 0.00 0.00 47 1011.1
20260510140111 20 336 32.2 54.7 0.00 0.00 0.00 47 1011.1
20260510140014 20 340 32.2 54.7 0.00 0.00 0.00 47 1011.1
20260510135908 20 96 32.2 54.7 0.00 0.00 0.00 46 1011.1
20260510135807 20 319 32.2 49.9 0.00 0.00 0.00 46 1011.2
20260510135652 20 57 32.2 49.9 0.00 0.00 0.00 46 1010.3
20260510135557 20 70 32.2 49.9 0.00 0.00 0.00 46 1010.3
20260510135452 20 45 33.8 51.5 0.00 0.00 0.00 46 1010.5
20260510135353 20 346 33.8 51.5 0.00 0.00 0.00 45 1010.5
20260510135254 20 22 32.2 51.5 0.00 0.00 0.00 45 1010.5
20260510135229 20 324 32.2 51.5 0.00 0.00 0.00 45 1010.6
20260510135054 20 321 30.6 51.5 0.00 0.00 0.00 44 1010.6
20260510134939 20 61 30.6 51.5 0.00 0.00 0.00 44 1010.6
20260510134847 20 290 29.0 51.5 0.00 0.00 0.00 44 1010.6
20260510134801 20 329 29.0 51.5 0.00 0.00 0.00 43 1010.7
20260510134643 21 40 29.0 51.5 0.00 0.00 0.00 43 1010.7
20260510134539 21 15 27.4 51.5 0.00 0.00 0.00 42 1010.7
20260510134442 21 26 25.7 41.8 0.00 0.00 0.00 42 1010.8
20260510134337 21 325 25.7 41.8 0.00 0.00 0.00 42 1010.8
20260510134237 21 320 25.7 41.8 0.00 0.00 0.00 42 1010.8
20260510134138 21 284 25.7 40.2 0.00 0.00 0.00 43 1009.7
20260510134040 21 326 25.7 40.2 0.00 0.00 0.00 44 1009.7
20260510133937 21 324 25.7 40.2 0.00 0.00 0.00 44 1009.7
20260510133836 21 28 25.7 40.2 0.00 0.00 0.00 45 1009.7
20260510133738 21 335 24.1 40.2 0.00 0.00 0.00 46 1009.7
20260510133713 21 93 24.1 40.2 0.00 0.00 0.00 46 1009.7
20260510133530 21 329 24.1 38.6 0.00 0.00 0.00 46 1009.7
20260510133430 21 324 24.1 38.6 0.00 0.00 0.00 46 1009.7
20260510133328 21 333 24.1 45.1 0.00 0.00 0.00 47 1009.7
20260510133236 21 173 24.1 45.1 0.00 0.00 0.00 48 1009.7
20260510133128 21 25 24.1 45.1 0.00 0.00 0.00 48 1009.7
20260510133026 21 341 24.1 45.1 0.00 0.00 0.00 48 1009.7
20260510132918 21 319 24.1 45.1 0.00 0.00 0.00 49 1009.7
20260510132820 21 111 24.1 45.1 0.00 0.00 0.00 49 1009.7
20260510132725 21 342 25.7 45.1 0.00 0.00 0.00 49 1009.0
20260510132712 21 337 25.7 45.1 0.00 0.00 0.00 49 1009.0
20260510132512 21 53 25.7 45.1 0.00 0.00 0.00 49 1009.0
20260510132402 21 349 25.7 45.1 0.00 0.00 0.00 48 1009.0
20260510132310 21 341 25.7 38.6 0.00 0.00 0.00 47 1009.0
20260510132201 21 346 24.1 38.6 0.00 0.00 0.00 46 1009.0
20260510132057 21 53 24.1 38.6 0.00 0.00 0.00 46 1009.0
20260510131955 21 349 25.7 38.6 0.00 0.00 0.00 46 1009.0
20260510131851 21 342 25.7 38.6 0.00 0.00 0.00 46 1009.0
20260510131751 21 333 25.7 38.6 0.00 0.00 0.00 45 1009.0
20260510131654 21 341 25.7 38.6 0.00 0.00 0.00 44 1009.0
20260510131551 21 20 25.7 38.6 0.00 0.00 0.00 44 1009.0
20260510131459 21 9 24.1 38.6 0.00 0.00 0.00 43 1009.0
20260510131356 21 325 25.7 38.6 0.00 0.00 0.00 41 1009.0
20260510131253 21 343 24.1 38.6 0.00 0.00 0.00 41 1009.0
20260510131147 21 14 24.1 38.6 0.00 0.00 0.00 41 1007.9
20260510131050 21 0 25.7 48.3 0.00 0.00 0.00 40 1007.9
20260510130947 21 315 24.1 48.3 0.00 0.00 0.00 40 1007.9
20260510130836 21 309 24.1 48.3 0.00 0.00 0.00 39 1007.9
20260510130740 21 319 24.1 48.3 0.00 0.00 0.00 39 1007.9
20260510130642 21 327 22.5 48.3 0.00 0.00 0.00 39 1007.9
20260510130542 21 272 22.5 48.3 0.00 0.00 0.00 38 1007.9
20260510130445 21 277 20.9 48.3 0.00 0.00 0.00 37 1007.9
20260510130339 21 39 17.7 48.3 0.00 0.00 0.00 36 1007.8
20260510130325 21 306 17.7 48.3 0.00 0.00 0.00 36 1007.8
20260510130253 21 306 17.7 48.3 0.00 0.00 0.00 36 1007.8
20260510130141 21 319 17.7 48.3 0.00 0.00 0.00 36 1007.8
20260510130039 21 313 16.1 35.4 0.00 0.00 0.00 35 1007.8
20260510125933 21 261 16.1 33.8 0.00 0.00 0.00 34 1007.8
20260510125833 20 343 16.1 29.0 0.00 0.00 0.00 34 1007.7
20260510125733 20 316 14.5 29.0 0.00 0.00 0.00 34 1007.5
20260510125644 20 298 14.5 29.0 0.00 0.00 0.00 34 1007.5
20260510125542 20 331 14.5 29.0 0.00 0.00 0.00 34 1007.4
20260510125433 20 19 14.5 29.0 0.00 0.00 0.00 34 1007.4
20260510125332 20 317 14.5 29.0 0.00 0.00 0.00 35 1007.2
20260510125232 20 330 12.9 29.0 0.00 0.00 0.00 35 1007.2
20260510125136 20 336 12.9 24.1 0.00 0.00 0.00 35 1007.2
20260510125038 20 337 12.9 24.1 0.00 0.00 0.00 35 1007.1
20260510124940 19 296 11.3 22.5 0.00 0.00 0.00 35 1007.0
20260510124835 19 315 11.3 20.9 0.00 0.00 0.00 35 1007.0
20260510124805 19 336 9.7 20.9 0.00 0.00 0.00 35 1006.9
20260510124626 19 331 9.7 20.9 0.00 0.00 0.00 35 1006.9
20260510124530 19 13 8.0 20.9 0.00 0.00 0.00 36 1006.9
20260510124435 18 304 8.0 19.3 0.00 0.00 0.00 36 1006.8
20260510124327 18 295 8.0 19.3 0.00 0.00 0.00 36 1006.8
20260510124228 18 346 8.0 19.3 0.00 0.00 0.00 36 1006.5
20260510124133 18 323 8.0 19.3 0.00 0.00 0.00 36 1006.4
20260510124022 18 344 8.0 19.3 0.00 0.00 0.00 36 1006.4
20260510123924 18 311 8.0 17.7 0.00 0.00 0.00 37 1006.4
20260510123827 18 304 8.0 17.7 0.00 0.00 0.00 37 1006.2
20260510123713 18 300 8.0 17.7 0.00 0.00 0.00 37 1006.2
20260510123619 18 296 8.0 17.7 0.00 0.00 0.00 37 1006.2
20260510123523 18 318 8.0 17.7 0.00 0.00 0.00 38 1006.1
20260510123425 18 311 8.0 17.7 0.00 0.00 0.00 38 1006.1
20260510123313 18 337 8.0 17.7 0.00 0.00 0.00 39 1006.1
20260510123210 17 306 8.0 17.7 0.00 0.00 0.00 39 1006.0
20260510123110 17 307 6.4 17.7 0.00 0.00 0.00 40 1006.0
20260510123022 17 302 6.4 17.7 0.00 0.00 0.00 41 1006.0
20260510122910 17 320 4.8 17.7 0.00 0.00 0.00 41 1006.0
20260510122816 17 336 4.8 17.7 0.00 0.00 0.00 41 1005.9
20260510122708 17 307 3.2 17.7 0.00 0.00 0.00 41 1005.2
20260510122610 17 348 3.2 17.7 0.00 0.00 0.00 41 1005.1
20260510122506 17 302 1.6 17.7 0.00 0.00 0.00 41 1005.0
20260510122411 17 297 1.6 12.9 0.00 0.00 0.00 42 1005.0
20260510122306 17 315 0.0 6.4 0.00 0.00 0.00 43 1005.0
20260510122239 17 339 0.0 6.4 0.00 0.00 0.00 42 1005.0
20260510122205 17 339 0.0 6.4 0.00 0.00 0.00 42 1005.0
20260510122104 16 321 0.0 3.2 0.00 0.00 0.00 42 1004.9
20260510121956 16 38 0.0 3.2 0.00 0.00 0.00 41 1004.9
20260510121843 17 319 0.0 3.2 0.00 0.00 0.00 41 1005.0
20260510121743 17 331 0.0 3.2 0.00 0.00 0.00 41 1005.0
20260510121637 17 330 0.0 3.2 0.00 0.00 0.00 41 1005.0
20260510121536 17 343 0.0 6.4 0.00 0.00 0.00 41 1005.0
20260510121425 17 307 0.0 6.4 0.00 0.00 0.00 40 1005.0
20260510121329 17 49 0.0 6.4 0.00 0.00 0.00 39 1005.1
20260510121228 17 332 0.0 6.4 0.00 0.00 0.00 39 1004.6
20260510121108 17 279 0.0 6.4 0.00 0.00 0.00 39 1004.6
20260510121022 17 279 0.0 6.4 0.00 0.00 0.00 39 1004.6
20260510120912 17 279 0.0 6.4 0.00 0.00 0.00 39 1004.6
20260510120812 17 279 0.0 6.4 0.00 0.00 0.00 39 1004.6
20260510120706 17 279 0.0 6.4 0.00 0.00 0.00 39 1004.6
20260510120605 17 309 0.0 6.4 0.00 0.00 0.00 39 1004.7
20260510120511 17 262 0.0 3.2 0.00 0.00 0.00 39 1004.7
20260510120406 17 262 0.0 3.2 0.00 0.00 0.00 38 1004.7
20260510120300 17 256 0.0 3.2 0.00 0.00 0.00 38 1004.7
20260510120151 17 306 0.0 3.2 0.00 0.00 0.00 39 1004.7
20260510120051 17 304 0.0 3.2 0.00 0.00 0.00 39 1004.6
20260510115948 17 302 0.0 3.2 0.00 0.00 0.00 39 1004.6
20260510115836 17 308 0.0 3.2 0.00 0.00 0.00 40 1004.6
20260510115735 17 274 0.0 1.6 0.00 0.00 0.00 40 1004.6
20260510115631 17 268 0.0 1.6 0.00 0.00 0.00 39 1004.1
20260510115528 17 267 0.0 1.6 0.00 0.00 0.00 39 1004.3
20260510115418 17 254 0.0 1.6 0.00 0.00 0.00 39 1004.3
20260510115311 17 254 0.0 1.6 0.00 0.00 0.00 39 1004.3
20260510115213 17 254 0.0 1.6 0.00 0.00 0.00 39 1004.3
20260510115113 17 248 0.0 1.6 0.00 0.00 0.00 39 1004.3
20260510115015 17 273 0.0 0.0 0.00 0.00 0.00 38 1004.3
20260510114915 17 273 0.0 1.6 0.00 0.00 0.00 38 1004.3
20260510114813 17 273 0.0 1.6 0.00 0.00 0.00 39 1004.4
20260510114706 17 273 0.0 1.6 0.00 0.00 0.00 38 1004.4
20260510114622 17 273 1.6 9.7 0.00 0.00 0.00 38 1004.4
20260510114510 17 273 1.6 16.1 0.00 0.00 0.00 38 1004.4
20260510114412 17 273 3.2 20.9 0.00 0.00 0.00 38 1004.4
20260510114250 17 273 4.8 20.9 0.00 0.00 0.00 38 1004.4
20260510114147 17 273 4.8 20.9 0.00 0.00 0.00 38 1003.7
20260510114039 17 273 4.8 20.9 0.00 0.00 0.00 38 1003.6
20260510113938 17 296 4.8 20.9 0.00 0.00 0.00 39 1003.6
20260510113837 17 296 4.8 20.9 0.00 0.00 0.00 39 1003.6
20260510113740 17 298 4.8 20.9 0.00 0.00 0.00 39 1003.6
20260510113612 17 299 4.8 20.9 0.00 0.00 0.00 39 1003.6
20260510113512 17 292 3.2 20.9 0.00 0.00 0.00 39 1003.7
20260510113414 17 316 1.6 19.3 0.00 0.00 0.00 38 1003.7
20260510113312 17 284 0.0 14.5 0.00 0.00 0.00 37 1003.6
20260510113212 17 283 0.0 4.8 0.00 0.00 0.00 37 1003.6
20260510113116 17 279 0.0 3.2 0.00 0.00 0.00 37 1003.7
20260510113013 17 238 0.0 3.2 0.00 0.00 0.00 37 1003.7
20260510112911 18 145 0.0 3.2 0.00 0.00 0.00 37 1003.8
20260510112813 18 137 0.0 3.2 0.00 0.00 0.00 36 1003.8
20260510112707 18 151 1.6 6.4 0.00 0.00 0.00 36 1003.6
20260510112608 18 273 1.6 9.7 0.00 0.00 0.00 35 1003.6
20260510112501 18 269 1.6 9.7 0.00 0.00 0.00 35 1003.6
20260510112402 18 209 1.6 9.7 0.00 0.00 0.00 35 1003.7
20260510112255 18 248 1.6 9.7 0.00 0.00 0.00 35 1003.7
20260510112152 18 262 1.6 9.7 0.00 0.00 0.00 35 1003.7
20260510112046 18 280 1.6 9.7 0.00 0.00 0.00 34 1003.8
20260510111940 18 273 1.6 9.7 0.00 0.00 0.00 34 1003.8
20260510111844 18 273 1.6 9.7 0.00 0.00 0.00 34 1003.8
20260510111727 18 282 1.6 9.7 0.00 0.00 0.00 34 1003.8
20260510111623 18 289 0.0 6.4 0.00 0.00 0.00 34 1003.8
20260510111522 18 292 0.0 3.2 0.00 0.00 0.00 34 1003.8
20260510111414 18 329 0.0 3.2 0.00 0.00 0.00 34 1003.8
20260510111309 18 329 0.0 3.2 0.00 0.00 0.00 34 1003.8
20260510111216 18 328 0.0 3.2 0.00 0.00 0.00 34 1003.9
20260510111107 18 333 0.0 3.2 0.00 0.00 0.00 33 1003.9
20260510111011 18 38 0.0 3.2 0.00 0.00 0.00 33 1003.9
20260510110911 18 109 0.0 3.2 0.00 0.00 0.00 34 1003.9
20260510110810 18 113 0.0 3.2 0.00 0.00 0.00 33 1003.9
20260510110710 18 102 0.0 6.4 0.00 0.00 0.00 33 1003.9
20260510110551 18 139 0.0 6.4 0.00 0.00 0.00 33 1003.9
20260510110448 18 153 0.0 6.4 0.00 0.00 0.00 33 1003.9
20260510110344 18 146 0.0 6.4 0.00 0.00 0.00 33 1003.9
20260510110246 18 157 0.0 6.4 0.00 0.00 0.00 33 1003.9
20260510110127 18 111 0.0 6.4 0.00 0.00 0.00 33 1004.0
20260510110013 18 169 0.0 6.4 0.00 0.00 0.00 33 1004.0
20260510105911 18 102 0.0 6.4 0.00 0.00 0.00 33 1004.0
20260510105810 18 117 0.0 6.4 0.00 0.00 0.00 32 1004.0
20260510105711 18 117 0.0 1.6 0.00 0.00 0.00 32 1004.3
20260510105609 19 136 0.0 1.6 0.00 0.00 0.00 33 1004.3
20260510105513 19 119 0.0 1.6 0.00 0.00 0.00 33 1004.3
20260510105411 19 90 0.0 1.6 0.00 0.00 0.00 33 1004.3
20260510105310 19 91 0.0 1.6 0.00 0.00 0.00 33 1004.4
20260510105158 19 91 0.0 1.6 0.00 0.00 0.00 33 1004.4
20260510105038 19 96 0.0 1.6 0.00 0.00 0.00 33 1004.4
20260510104934 19 117 0.0 1.6 0.00 0.00 0.00 33 1004.4
20260510104835 19 113 0.0 1.6 0.00 0.00 0.00 33 1004.4
20260510104717 19 207 0.0 1.6 0.00 0.00 0.00 33 1004.4
20260510104622 19 230 0.0 1.6 0.00 0.00 0.00 32 1004.4
20260510104515 19 230 0.0 0.0 0.00 0.00 0.00 32 1004.4
20260510104414 19 231 0.0 0.0 0.00 0.00 0.00 32 1004.4
20260510104311 19 200 0.0 1.6 0.00 0.00 0.00 32 1004.4
20260510104212 19 160 0.0 1.6 0.00 0.00 0.00 32 1003.8
20260510104111 19 159 0.0 3.2 0.00 0.00 0.00 32 1003.8
20260510104012 19 160 0.0 3.2 0.00 0.00 0.00 33 1003.9
20260510103911 19 166 0.0 6.4 0.00 0.00 0.00 33 1003.9
20260510103809 19 162 0.0 6.4 0.00 0.00 0.00 33 1003.9
20260510103649 19 120 0.0 6.4 0.00 0.00 0.00 33 1003.9
20260510103543 19 119 0.0 6.4 0.00 0.00 0.00 32 1003.9
20260510103443 19 110 0.0 6.4 0.00 0.00 0.00 33 1003.9
20260510103348 19 101 0.0 6.4 0.00 0.00 0.00 33 1003.9
20260510103236 19 101 0.0 6.4 0.00 0.00 0.00 33 1003.9
20260510103144 19 69 0.0 6.4 0.00 0.00 0.00 33 1003.9
20260510103042 20 44 0.0 6.4 0.00 0.00 0.00 33 1003.9
20260510102938 20 53 0.0 3.2 0.00 0.00 0.00 32 1003.9
20260510102837 20 80 0.0 1.6 0.00 0.00 0.00 32 1004.0
20260510102734 20 80 0.0 3.2 0.00 0.00 0.00 33 1003.9
20260510102632 20 80 0.0 3.2 0.00 0.00 0.00 33 1003.9
20260510102529 20 80 0.0 3.2 0.00 0.00 0.00 32 1003.9
20260510102423 20 80 0.0 3.2 0.00 0.00 0.00 31 1003.9
20260510102319 20 80 0.0 3.2 0.00 0.00 0.00 31 1004.0
20260510102215 20 80 0.0 3.2 0.00 0.00 0.00 31 1004.0
20260510102112 20 100 0.0 3.2 0.00 0.00 0.00 31 1004.0
20260510102023 20 82 0.0 3.2 0.00 0.00 0.00 31 1004.0
20260510101916 20 109 0.0 3.2 0.00 0.00 0.00 30 1004.0
20260510101813 20 108 1.6 6.4 0.00 0.00 0.00 30 1004.0
20260510101703 20 107 1.6 16.1 0.00 0.00 0.00 30 1004.0
20260510101605 20 82 1.6 16.1 0.00 0.00 0.00 30 1004.0
20260510101500 20 175 1.6 16.1 0.00 0.00 0.00 30 1004.0
20260510101336 20 175 1.6 16.1 0.00 0.00 0.00 30 1004.0
20260510101245 20 175 1.6 16.1 0.00 0.00 0.00 29 1004.0
20260510101141 20 175 1.6 16.1 0.00 0.00 0.00 29 1003.5
20260510101037 20 197 1.6 16.1 0.00 0.00 0.00 29 1003.5
20260510100939 20 312 1.6 16.1 0.00 0.00 0.00 30 1003.5
20260510100838 20 11 1.6 16.1 0.00 0.00 0.00 30 1003.5
20260510100731 20 86 0.0 11.3 0.00 0.00 0.00 30 1003.5
20260510100628 20 48 0.0 8.0 0.00 0.00 0.00 29 1003.6
20260510100519 20 22 0.0 1.6 0.00 0.00 0.00 29 1003.6
20260510100412 20 76 0.0 4.8 0.00 0.00 0.00 29 1003.6
20260510100313 20 89 0.0 4.8 0.00 0.00 0.00 30 1003.6
20260510100212 20 103 0.0 8.0 0.00 0.00 0.00 30 1003.6
20260510100114 20 67 0.0 8.0 0.00 0.00 0.00 30 1003.6
20260510100008 20 0 0.0 8.0 0.00 0.00 0.00 30 1003.6
20260510095905 20 355 0.0 8.0 0.00 0.00 0.00 29 1003.6
20260510095737 20 98 0.0 8.0 0.00 0.00 0.00 28 1003.6
20260510095650 20 97 0.0 8.0 0.00 0.00 0.00 29 1003.6
20260510095540 20 100 0.0 8.0 0.00 0.00 0.00 29 1003.6
20260510095445 20 119 0.0 8.0 0.00 0.00 0.00 29 1003.6
20260510095345 20 129 0.0 8.0 0.00 0.00 0.00 29 1003.6
20260510095243 20 135 0.0 3.2 0.00 0.00 0.00 30 1003.6
20260510095139 20 113 0.0 1.6 0.00 0.00 0.00 30 1003.6
20260510095040 20 141 0.0 1.6 0.00 0.00 0.00 30 1003.6
20260510094935 20 132 0.0 1.6 0.00 0.00 0.00 29 1003.6
20260510094816 20 233 0.0 1.6 0.00 0.00 0.00 30 1003.6
20260510094715 20 248 0.0 1.6 0.00 0.00 0.00 29 1003.6
20260510094600 20 248 0.0 3.2 0.00 0.00 0.00 29 1003.6
20260510094443 20 250 1.6 6.4 0.00 0.00 0.00 29 1003.6
20260510094415 20 240 1.6 6.4 0.00 0.00 0.00 30 1003.6
20260510094239 20 240 1.6 6.4 0.00 0.00 0.00 30 1003.6
20260510094138 20 253 1.6 6.4 0.00 0.00 0.00 30 1003.5
20260510094042 20 242 1.6 6.4 0.00 0.00 0.00 30 1003.5
20260510093940 20 82 1.6 6.4 0.00 0.00 0.00 30 1003.6
20260510093828 20 81 1.6 6.4 0.00 0.00 0.00 30 1003.6
20260510093715 21 73 1.6 6.4 0.00 0.00 0.00 30 1003.6
20260510093626 21 79 1.6 6.4 0.00 0.00 0.00 30 1003.6
20260510093515 21 72 1.6 6.4 0.00 0.00 0.00 28 1003.6
20260510093442 21 65 0.0 6.4 0.00 0.00 0.00 28 1003.6
20260510093310 21 115 0.0 6.4 0.00 0.00 0.00 28 1003.7
20260510093212 21 115 1.6 6.4 0.00 0.00 0.00 28 1003.6
20260510093112 21 136 1.6 6.4 0.00 0.00 0.00 28 1003.7
20260510093004 21 163 1.6 6.4 0.00 0.00 0.00 28 1003.7
20260510092846 21 169 1.6 9.7 0.00 0.00 0.00 27 1003.7
20260510092744 21 173 1.6 9.7 0.00 0.00 0.00 27 1003.7
20260510092650 21 136 3.2 9.7 0.00 0.00 0.00 28 1003.5
20260510092538 21 158 1.6 9.7 0.00 0.00 0.00 28 1003.5
20260510092438 21 192 3.2 9.7 0.00 0.00 0.00 28 1003.6
20260510092342 21 228 3.2 9.7 0.00 0.00 0.00 28 1003.6
20260510092315 21 247 3.2 9.7 0.00 0.00 0.00 28 1003.6
20260510092244 21 247 3.2 9.7 0.00 0.00 0.00 28 1003.6
20260510092135 21 244 3.2 9.7 0.00 0.00 0.00 28 1003.6
20260510092047 21 248 3.2 9.7 0.00 0.00 0.00 28 1003.6
20260510091947 21 227 3.2 9.7 0.00 0.00 0.00 28 1003.6
20260510091843 21 258 3.2 9.7 0.00 0.00 0.00 28 1003.6
20260510091738 21 255 1.6 8.0 0.00 0.00 0.00 28 1003.6
20260510091639 21 245 1.6 3.2 0.00 0.00 0.00 28 1003.7
20260510091538 21 211 1.6 3.2 0.00 0.00 0.00 27 1003.6
20260510091439 21 193 1.6 3.2 0.00 0.00 0.00 27 1003.6
20260510091334 21 210 1.6 3.2 0.00 0.00 0.00 27 1003.6
20260510091231 21 180 1.6 3.2 0.00 0.00 0.00 27 1003.3
20260510091130 21 192 0.0 3.2 0.00 0.00 0.00 27 1003.3
20260510091031 21 192 0.0 3.2 0.00 0.00 0.00 27 1003.3
20260510090930 21 192 0.0 3.2 0.00 0.00 0.00 27 1003.3
20260510090825 21 202 0.0 3.2 0.00 0.00 0.00 27 1003.3
20260510090723 21 168 0.0 1.6 0.00 0.00 0.00 28 1003.3
20260510090619 21 165 0.0 1.6 0.00 0.00 0.00 28 1003.3
20260510090516 21 106 0.0 1.6 0.00 0.00 0.00 28 1003.3
20260510090410 21 98 0.0 1.6 0.00 0.00 0.00 29 1003.3
20260510090314 21 78 0.0 1.6 0.00 0.00 0.00 29 1003.3
20260510090213 21 78 0.0 1.6 0.00 0.00 0.00 29 1003.3
20260510090110 21 108 0.0 0.0 0.00 0.00 0.00 29 1003.3
20260510090018 21 143 0.0 0.0 0.00 0.00 0.00 28 1003.3
20260510085913 21 144 0.0 1.6 0.00 0.00 0.00 28 1003.3
20260510085814 21 144 0.0 1.6 0.00 0.00 0.00 27 1003.3
20260510085656 21 144 0.0 1.6 0.00 0.00 0.00 27 1003.0
20260510085540 21 141 0.0 8.0 0.00 0.00 0.00 27 1003.1
20260510085437 21 141 0.0 8.0 0.00 0.00 0.00 27 1003.1
20260510085342 21 141 0.0 8.0 0.00 0.00 0.00 27 1003.1
20260510085238 21 141 0.0 8.0 0.00 0.00 0.00 27 1003.3
20260510085214 21 141 0.0 8.0 0.00 0.00 0.00 27 1003.3
20260510085039 21 140 0.0 8.0 0.00 0.00 0.00 26 1003.3
20260510084938 21 141 0.0 8.0 0.00 0.00 0.00 26 1003.3
20260510084842 21 152 0.0 8.0 0.00 0.00 0.00 26 1003.3
20260510084741 22 145 1.6 8.0 0.00 0.00 0.00 26 1003.4
20260510084636 22 132 1.6 8.0 0.00 0.00 0.00 26 1003.4
20260510084536 22 124 1.6 8.0 0.00 0.00 0.00 26 1003.4
20260510084441 22 123 1.6 8.0 0.00 0.00 0.00 26 1003.4
20260510084338 22 78 1.6 8.0 0.00 0.00 0.00 26 1003.4
20260510084235 22 134 1.6 8.0 0.00 0.00 0.00 25 1003.6
20260510084130 22 121 1.6 8.0 0.00 0.00 0.00 25 1003.6
20260510084026 22 143 3.2 8.0 0.00 0.00 0.00 25 1003.6
20260510083910 22 178 3.2 8.0 0.00 0.00 0.00 25 1003.6
20260510083801 22 186 3.2 8.0 0.00 0.00 0.00 25 1003.6
20260510083702 22 173 3.2 8.0 0.00 0.00 0.00 26 1003.6
20260510083606 22 173 3.2 8.0 0.00 0.00 0.00 26 1003.6
20260510083500 22 189 3.2 8.0 0.00 0.00 0.00 26 1003.6
20260510083402 22 185 3.2 8.0 0.00 0.00 0.00 26 1003.6
20260510083251 22 193 3.2 8.0 0.00 0.00 0.00 26 1003.6
20260510083149 22 180 3.2 8.0 0.00 0.00 0.00 26 1003.6
20260510083048 22 190 3.2 8.0 0.00 0.00 0.00 26 1003.6
20260510082941 22 189 3.2 8.0 0.00 0.00 0.00 26 1003.6
20260510082845 22 214 3.2 8.0 0.00 0.00 0.00 26 1003.6
20260510082742 22 214 3.2 8.0 0.00 0.00 0.00 26 1003.6
20260510082642 22 217 3.2 8.0 0.00 0.00 0.00 26 1003.7
20260510082539 22 205 3.2 8.0 0.00 0.00 0.00 26 1003.6
20260510082441 22 186 3.2 8.0 0.00 0.00 0.00 26 1003.6
20260510082340 22 202 3.2 8.0 0.00 0.00 0.00 27 1003.7
20260510082238 22 196 3.2 8.0 0.00 0.00 0.00 27 1003.7
20260510082137 22 200 3.2 8.0 0.00 0.00 0.00 26 1003.7
20260510082035 22 173 1.6 8.0 0.00 0.00 0.00 26 1003.7
20260510081931 22 200 1.6 6.4 0.00 0.00 0.00 26 1003.7
20260510081831 22 207 1.6 6.4 0.00 0.00 0.00 26 1003.7
20260510081728 22 209 0.0 6.4 0.00 0.00 0.00 26 1003.7
20260510081630 22 190 0.0 6.4 0.00 0.00 0.00 26 1003.7
20260510081522 22 170 0.0 6.4 0.00 0.00 0.00 25 1003.7
20260510081427 22 200 0.0 3.2 0.00 0.00 0.00 26 1003.7
20260510081326 22 129 0.0 1.6 0.00 0.00 0.00 26 1003.7
20260510081220 22 194 0.0 1.6 0.00 0.00 0.00 26 1004.0
20260510081123 22 231 0.0 1.6 0.00 0.00 0.00 26 1004.1
20260510081012 22 232 0.0 1.6 0.00 0.00 0.00 26 1004.1
20260510080915 22 202 0.0 1.6 0.00 0.00 0.00 27 1004.1
20260510080813 22 211 0.0 1.6 0.00 0.00 0.00 27 1004.1
20260510080706 22 212 0.0 1.6 0.00 0.00 0.00 27 1004.1
20260510080613 22 221 0.0 3.2 0.00 0.00 0.00 26 1004.1
20260510080509 22 222 0.0 6.4 0.00 0.00 0.00 26 1004.1
20260510080404 22 201 1.6 6.4 0.00 0.00 0.00 26 1004.1
20260510080247 22 198 1.6 8.0 0.00 0.00 0.00 26 1004.1
20260510080150 22 224 1.6 8.0 0.00 0.00 0.00 26 1004.1
20260510080037 22 227 1.6 8.0 0.00 0.00 0.00 26 1004.1
20260510075941 22 221 1.6 8.0 0.00 0.00 0.00 26 1004.1
20260510075839 22 221 1.6 8.0 0.00 0.00 0.00 26 1004.3
20260510075733 22 211 1.6 8.0 0.00 0.00 0.00 26 1004.1
20260510075638 22 218 1.6 8.0 0.00 0.00 0.00 26 1004.0
20260510075537 22 187 0.0 8.0 0.00 0.00 0.00 26 1003.9
20260510075433 22 176 0.0 8.0 0.00 0.00 0.00 26 1003.9
20260510075338 22 114 0.0 6.4 0.00 0.00 0.00 26 1003.9
20260510075231 22 100 0.0 3.2 0.00 0.00 0.00 27 1003.9
20260510075132 22 119 0.0 0.0 0.00 0.00 0.00 27 1003.9
20260510075021 22 242 0.0 0.0 0.00 0.00 0.00 27 1004.0
20260510074914 22 242 0.0 0.0 0.00 0.00 0.00 27 1004.0
20260510074755 22 232 0.0 0.0 0.00 0.00 0.00 26 1004.0
20260510074642 22 232 0.0 0.0 0.00 0.00 0.00 26 1004.0
20260510074539 22 232 0.0 0.0 0.00 0.00 0.00 26 1004.0
20260510074439 22 232 0.0 0.0 0.00 0.00 0.00 26 1004.0
20260510074336 22 147 0.0 0.0 0.00 0.00 0.00 25 1004.0
20260510074238 22 147 0.0 0.0 0.00 0.00 0.00 26 1004.0
20260510074146 22 147 0.0 0.0 0.00 0.00 0.00 26 1004.3
20260510074045 22 148 0.0 0.0 0.00 0.00 0.00 26 1004.3
20260510073934 22 225 0.0 0.0 0.00 0.00 0.00 26 1004.3
20260510073830 22 267 0.0 0.0 0.00 0.00 0.00 25 1004.3
20260510073732 22 267 0.0 0.0 0.00 0.00 0.00 25 1004.3
20260510073623 22 267 0.0 0.0 0.00 0.00 0.00 25 1004.3
20260510073532 22 267 0.0 0.0 0.00 0.00 0.00 26 1004.3
20260510073415 22 285 0.0 0.0 0.00 0.00 0.00 26 1004.4
20260510073314 22 322 0.0 1.6 0.00 0.00 0.00 27 1004.4
20260510073213 22 322 0.0 1.6 0.00 0.00 0.00 26 1004.4
20260510073110 22 322 0.0 1.6 0.00 0.00 0.00 26 1004.4
20260510073024 23 322 0.0 1.6 0.00 0.00 0.00 26 1004.5
20260510072913 23 322 0.0 1.6 0.00 0.00 0.00 26 1004.5
20260510072811 23 322 0.0 1.6 0.00 0.00 0.00 24 1004.5
20260510072711 23 323 0.0 1.6 0.00 0.00 0.00 24 1004.9
20260510072558 23 323 0.0 1.6 0.00 0.00 0.00 24 1004.9
20260510072457 23 323 0.0 1.6 0.00 0.00 0.00 24 1004.9
20260510072346 23 323 0.0 1.6 0.00 0.00 0.00 23 1004.9
20260510072240 23 231 0.0 1.6 0.00 0.00 0.00 23 1005.0
20260510072140 23 231 0.0 1.6 0.00 0.00 0.00 22 1005.0
20260510072042 23 231 0.0 1.6 0.00 0.00 0.00 22 1005.0
20260510071932 23 231 0.0 1.6 0.00 0.00 0.00 23 1005.0
20260510071833 23 231 0.0 1.6 0.00 0.00 0.00 22 1005.0
20260510071734 23 231 0.0 3.2 0.00 0.00 0.00 22 1005.0
20260510071631 23 231 0.0 3.2 0.00 0.00 0.00 22 1005.0
20260510071518 23 231 0.0 3.2 0.00 0.00 0.00 22 1005.0
20260510071414 23 231 0.0 3.2 0.00 0.00 0.00 22 1005.0
20260510071253 23 225 0.0 3.2 0.00 0.00 0.00 22 1005.0
20260510071222 23 182 1.6 6.4 0.00 0.00 0.00 22 1005.2
20260510071157 23 256 0.0 3.2 0.00 0.00 0.00 22 1005.4
20260510071036 23 252 1.6 6.4 0.00 0.00 0.00 22 1005.4
20260510070936 23 184 1.6 6.4 0.00 0.00 0.00 22 1005.4
20260510070840 23 180 1.6 6.4 0.00 0.00 0.00 22 1005.4
20260510070743 23 186 1.6 6.4 0.00 0.00 0.00 22 1005.2
20260510070639 23 157 1.6 6.4 0.00 0.00 0.00 22 1005.2
20260510070452 23 226 1.6 6.4 0.00 0.00 0.00 22 1005.2
20260510070356 23 150 1.6 6.4 0.00 0.00 0.00 22 1005.1
20260510070255 23 123 0.0 6.4 0.00 0.00 0.00 23 1005.1
20260510070208 23 115 0.0 6.4 0.00 0.00 0.00 23 1005.1
20260510070054 23 184 0.0 6.4 0.00 0.00 0.00 22 1005.1
20260510065932 22 152 0.0 6.4 0.00 0.00 0.00 24 1005.1
20260510065822 22 227 0.0 6.4 0.00 0.00 0.00 24 1005.0
20260510065732 22 188 0.0 1.6 0.00 0.00 0.00 24 1005.1
20260510065630 22 244 0.0 1.6 0.00 0.00 0.00 24 1005.1
20260510065524 22 244 0.0 1.6 0.00 0.00 0.00 24 1005.0
20260510065415 22 245 0.0 1.6 0.00 0.00 0.00 24 1005.0
20260510065316 22 214 0.0 1.6 0.00 0.00 0.00 24 1005.0
20260510065209 22 136 0.0 1.6 0.00 0.00 0.00 24 1005.0
20260510065109 22 105 0.0 3.2 0.00 0.00 0.00 24 1005.0
20260510064959 22 107 0.0 3.2 0.00 0.00 0.00 24 1004.9
20260510064858 22 86 0.0 3.2 0.00 0.00 0.00 24 1004.9
20260510064752 22 147 0.0 3.2 0.00 0.00 0.00 25 1004.8
20260510064651 22 246 0.0 3.2 0.00 0.00 0.00 26 1004.8
20260510064544 22 246 0.0 3.2 0.00 0.00 0.00 27 1004.8
20260510064435 21 264 0.0 3.2 0.00 0.00 0.00 27 1004.8
20260510064335 22 264 0.0 3.2 0.00 0.00 0.00 27 1004.8
20260510064236 21 273 0.0 3.2 0.00 0.00 0.00 27 1004.7
20260510064128 21 279 0.0 3.2 0.00 0.00 0.00 27 1004.7
20260510064028 21 284 0.0 1.6 0.00 0.00 0.00 27 1004.7
20260510063934 22 155 0.0 1.6 0.00 0.00 0.00 27 1004.7
20260510063826 21 155 0.0 1.6 0.00 0.00 0.00 27 1004.7
20260510063723 21 155 0.0 1.6 0.00 0.00 0.00 26 1004.7
20260510063616 21 126 0.0 1.6 0.00 0.00 0.00 26 1004.7
20260510063517 21 125 0.0 1.6 0.00 0.00 0.00 26 1004.7
20260510063414 21 121 0.0 1.6 0.00 0.00 0.00 27 1004.6
20260510063314 21 121 0.0 0.0 0.00 0.00 0.00 27 1004.6
20260510063214 21 121 0.0 0.0 0.00 0.00 0.00 27 1004.6
20260510063114 21 122 0.0 0.0 0.00 0.00 0.00 27 1004.6
20260510063010 21 113 0.0 0.0 0.00 0.00 0.00 27 1004.6
20260510062912 21 111 0.0 0.0 0.00 0.00 0.00 27 1004.6
20260510062808 21 33 0.0 0.0 0.00 0.00 0.00 27 1004.5
20260510062708 21 32 0.0 0.0 0.00 0.00 0.00 28 1004.4
20260510062606 21 32 0.0 1.6 0.00 0.00 0.00 28 1004.4
20260510062514 21 32 0.0 1.6 0.00 0.00 0.00 28 1004.4
20260510062338 21 32 0.0 1.6 0.00 0.00 0.00 28 1004.4
20260510062242 21 32 0.0 1.6 0.00 0.00 0.00 29 1004.4
20260510062142 21 32 0.0 1.6 0.00 0.00 0.00 26 1004.4
20260510062039 21 126 0.0 1.6 0.00 0.00 0.00 26 1004.4
20260510061939 21 126 0.0 1.6 0.00 0.00 0.00 27 1004.4
20260510061838 21 126 0.0 1.6 0.00 0.00 0.00 27 1004.4
20260510061739 21 126 0.0 1.6 0.00 0.00 0.00 26 1004.4
20260510061634 21 127 0.0 1.6 0.00 0.00 0.00 27 1004.5
20260510061532 21 94 0.0 1.6 0.00 0.00 0.00 27 1004.4
20260510061435 21 94 0.0 1.6 0.00 0.00 0.00 27 1004.4
20260510061319 21 94 0.0 1.6 0.00 0.00 0.00 27 1004.4
20260510061224 21 93 0.0 1.6 0.00 0.00 0.00 27 1004.6
20260510061112 21 92 0.0 1.6 0.00 0.00 0.00 27 1004.6
20260510061008 21 92 0.0 1.6 0.00 0.00 0.00 28 1004.6
20260510060905 21 94 0.0 1.6 0.00 0.00 0.00 27 1004.6
20260510060759 21 98 0.0 1.6 0.00 0.00 0.00 27 1004.6
20260510060652 21 105 0.0 1.6 0.00 0.00 0.00 27 1004.6
20260510060616 21 105 0.0 1.6 0.00 0.00 0.00 27 1004.6
20260510060437 21 105 0.0 1.6 0.00 0.00 0.00 27 1004.6
20260510060338 21 105 0.0 1.6 0.00 0.00 0.00 28 1004.6
20260510060255 21 105 0.0 1.6 0.00 0.00 0.00 28 1004.6
20260510060130 21 113 0.0 1.6 0.00 0.00 0.00 27 1004.6
20260510060030 21 113 0.0 0.0 0.00 0.00 0.00 27 1004.6
20260510055916 21 113 0.0 0.0 0.00 0.00 0.00 27 1004.6
20260510055810 21 113 0.0 1.6 0.00 0.00 0.00 27 1004.6
20260510055717 21 113 0.0 8.0 0.00 0.00 0.00 27 1004.7
20260510055611 21 113 0.0 8.0 0.00 0.00 0.00 27 1004.7
20260510055510 21 113 1.6 8.0 0.00 0.00 0.00 27 1004.7
20260510055412 21 113 1.6 8.0 0.00 0.00 0.00 27 1004.7
20260510055238 21 113 1.6 8.0 0.00 0.00 0.00 27 1004.7
20260510055139 22 113 1.6 8.0 0.00 0.00 0.00 27 1004.7
20260510055039 21 113 1.6 8.0 0.00 0.00 0.00 27 1004.7
20260510054939 21 116 1.6 8.0 0.00 0.00 0.00 27 1004.7
20260510054840 21 86 1.6 8.0 0.00 0.00 0.00 27 1004.7
20260510054735 21 67 1.6 8.0 0.00 0.00 0.00 27 1004.7
20260510054635 21 106 1.6 8.0 0.00 0.00 0.00 27 1004.7
20260510054531 21 95 1.6 8.0 0.00 0.00 0.00 27 1004.7
20260510054428 21 101 1.6 8.0 0.00 0.00 0.00 27 1004.7
20260510054317 21 118 1.6 8.0 0.00 0.00 0.00 27 1004.7
20260510054211 22 111 1.6 8.0 0.00 0.00 0.00 27 1004.4
20260510054115 22 85 1.6 8.0 0.00 0.00 0.00 27 1004.5
20260510054014 22 118 1.6 8.0 0.00 0.00 0.00 27 1004.5
20260510053907 22 110 1.6 8.0 0.00 0.00 0.00 27 1004.5
20260510053801 22 83 1.6 8.0 0.00 0.00 0.00 27 1004.5
20260510053655 22 98 1.6 6.4 0.00 0.00 0.00 27 1004.5
20260510053553 22 82 0.0 4.8 0.00 0.00 0.00 26 1004.5
20260510053455 22 92 0.0 4.8 0.00 0.00 0.00 26 1004.5
20260510053358 22 87 0.0 4.8 0.00 0.00 0.00 26 1004.6
20260510053252 22 82 0.0 4.8 0.00 0.00 0.00 26 1004.6
20260510053146 22 95 0.0 4.8 0.00 0.00 0.00 25 1004.6
20260510053105 22 79 0.0 3.2 0.00 0.00 0.00 25 1004.6
20260510052937 22 111 0.0 1.6 0.00 0.00 0.00 25 1004.6
20260510052842 22 100 0.0 1.6 0.00 0.00 0.00 25 1004.6
20260510052737 22 94 0.0 4.8 0.00 0.00 0.00 25 1004.6
20260510052639 22 109 0.0 4.8 0.00 0.00 0.00 25 1004.5
20260510052540 22 97 0.0 4.8 0.00 0.00 0.00 25 1004.5
20260510052438 22 69 0.0 6.4 0.00 0.00 0.00 25 1004.5
20260510052339 22 274 1.6 6.4 0.00 0.00 0.00 25 1004.5
20260510052237 22 273 1.6 6.4 0.00 0.00 0.00 25 1004.5
20260510052143 22 273 1.6 8.0 0.00 0.00 0.00 24 1004.5
20260510052052 22 273 1.6 8.0 0.00 0.00 0.00 25 1004.5
20260510051934 22 273 1.6 8.0 0.00 0.00 0.00 25 1004.5
20260510051836 22 260 1.6 8.0 0.00 0.00 0.00 25 1004.5
20260510051731 22 246 1.6 8.0 0.00 0.00 0.00 25 1004.5
20260510051635 22 243 3.2 8.0 0.00 0.00 0.00 25 1004.5
20260510051533 22 246 3.2 8.0 0.00 0.00 0.00 25 1004.5
20260510051432 22 264 3.2 8.0 0.00 0.00 0.00 25 1004.5
20260510051331 22 268 3.2 8.0 0.00 0.00 0.00 25 1004.5
20260510051225 22 256 3.2 8.0 0.00 0.00 0.00 25 1005.4
20260510051135 22 252 3.2 8.0 0.00 0.00 0.00 25 1005.4
20260510051010 22 292 3.2 9.7 0.00 0.00 0.00 25 1005.4
20260510050912 23 286 3.2 9.7 0.00 0.00 0.00 25 1005.5
20260510050813 23 292 3.2 9.7 0.00 0.00 0.00 24 1005.5
20260510050715 23 265 4.8 9.7 0.00 0.00 0.00 24 1005.5
20260510050614 23 279 3.2 9.7 0.00 0.00 0.00 24 1005.5
20260510050509 23 280 3.2 9.7 0.00 0.00 0.00 24 1005.5
20260510050410 22 263 3.2 9.7 0.00 0.00 0.00 24 1005.4
20260510050310 22 265 3.2 9.7 0.00 0.00 0.00 24 1005.4
20260510050212 22 262 3.2 9.7 0.00 0.00 0.00 24 1005.4
20260510050111 22 271 3.2 9.7 0.00 0.00 0.00 24 1005.4
20260510045949 22 264 3.2 9.7 0.00 0.00 0.00 24 1005.4
20260510045851 22 290 1.6 9.7 0.00 0.00 0.00 25 1005.4
20260510045739 22 261 1.6 9.7 0.00 0.00 0.00 25 1005.0
20260510045637 22 265 1.6 6.4 0.00 0.00 0.00 25 1005.0
20260510045539 22 260 1.6 6.4 0.00 0.00 0.00 25 1005.0
20260510045509 22 257 3.2 6.4 0.00 0.00 0.00 25 1005.1
20260510045342 23 273 3.2 6.4 0.00 0.00 0.00 25 1005.1
20260510045235 23 274 3.2 6.4 0.00 0.00 0.00 24 1005.1
20260510045119 23 264 3.2 8.0 0.00 0.00 0.00 24 1005.1
20260510045028 23 294 3.2 8.0 0.00 0.00 0.00 24 1005.2
20260510044920 23 282 3.2 8.0 0.00 0.00 0.00 24 1005.2
20260510044827 23 294 1.6 8.0 0.00 0.00 0.00 24 1005.2
20260510044710 23 304 1.6 8.0 0.00 0.00 0.00 23 1005.4
20260510044608 23 296 1.6 8.0 0.00 0.00 0.00 23 1005.4
20260510044508 23 306 1.6 8.0 0.00 0.00 0.00 22 1005.5
20260510044410 23 285 1.6 8.0 0.00 0.00 0.00 22 1005.5
20260510044309 24 273 1.6 8.0 0.00 0.00 0.00 22 1005.6
20260510044215 24 281 1.6 8.0 0.00 0.00 0.00 22 1005.4
20260510044112 24 275 1.6 6.4 0.00 0.00 0.00 22 1005.4
20260510044010 24 279 1.6 8.0 0.00 0.00 0.00 22 1005.5
20260510043912 24 266 1.6 8.0 0.00 0.00 0.00 21 1005.5
20260510043805 24 271 1.6 8.0 0.00 0.00 0.00 21 1005.5
20260510043702 24 285 1.6 8.0 0.00 0.00 0.00 21 1005.5
20260510043603 24 285 1.6 8.0 0.00 0.00 0.00 21 1005.5
20260510043503 24 267 1.6 8.0 0.00 0.00 0.00 21 1005.6
20260510043358 24 252 1.6 8.0 0.00 0.00 0.00 21 1005.6
20260510043240 25 263 1.6 8.0 0.00 0.00 0.00 21 1005.6
20260510043135 25 262 1.6 8.0 0.00 0.00 0.00 21 1005.6
20260510043039 25 266 1.6 8.0 0.00 0.00 0.00 21 1005.6
20260510042938 25 279 1.6 8.0 0.00 0.00 0.00 21 1005.6
20260510042837 25 255 1.6 8.0 0.00 0.00 0.00 20 1005.7
20260510042737 25 271 3.2 8.0 0.00 0.00 0.00 20 1005.7
20260510042635 25 255 3.2 8.0 0.00 0.00 0.00 20 1005.5
20260510042536 25 261 3.2 9.7 0.00 0.00 0.00 20 1005.6
20260510042442 25 284 3.2 9.7 0.00 0.00 0.00 20 1005.6
20260510042337 25 235 4.8 9.7 0.00 0.00 0.00 19 1005.6
20260510042237 25 244 4.8 11.3 0.00 0.00 0.00 19 1005.6
20260510042136 25 265 4.8 11.3 0.00 0.00 0.00 19 1005.7
20260510042033 25 215 4.8 11.3 0.00 0.00 0.00 19 1005.7
20260510041927 25 242 4.8 11.3 0.00 0.00 0.00 19 1005.7
20260510041826 25 224 4.8 11.3 0.00 0.00 0.00 19 1005.7
20260510041713 25 251 4.8 11.3 0.00 0.00 0.00 19 1005.8
20260510041608 25 256 4.8 11.3 0.00 0.00 0.00 19 1005.8
20260510041508 26 234 4.8 11.3 0.00 0.00 0.00 19 1005.8
20260510041408 26 259 4.8 11.3 0.00 0.00 0.00 18 1005.8
20260510041312 26 246 4.8 11.3 0.00 0.00 0.00 18 1005.8
20260510041158 26 244 6.4 11.3 0.00 0.00 0.00 18 1006.1
20260510041055 26 253 6.4 11.3 0.00 0.00 0.00 18 1006.1
20260510040952 26 232 6.4 11.3 0.00 0.00 0.00 18 1006.1
20260510040851 26 264 6.4 12.9 0.00 0.00 0.00 18 1006.1
20260510040753 26 232 6.4 12.9 0.00 0.00 0.00 18 1006.1
20260510040646 26 279 6.4 12.9 0.00 0.00 0.00 18 1006.1
20260510040546 26 265 6.4 14.5 0.00 0.00 0.00 18 1006.1
20260510040443 26 244 6.4 17.7 0.00 0.00 0.00 18 1006.1
20260510040336 26 256 6.4 17.7 0.00 0.00 0.00 18 1006.1
20260510040233 26 244 6.4 17.7 0.00 0.00 0.00 18 1006.1
20260510040135 26 244 6.4 17.7 0.00 0.00 0.00 18 1006.1
20260510040033 26 246 6.4 17.7 0.00 0.00 0.00 18 1006.1
20260510035933 26 241 8.0 19.3 0.00 0.00 0.00 18 1006.1
20260510035838 26 242 8.0 19.3 0.00 0.00 0.00 18 1006.1
20260510035734 26 252 8.0 19.3 0.00 0.00 0.00 18 1006.1
20260510035637 26 265 8.0 19.3 0.00 0.00 0.00 18 1005.9
20260510035537 26 254 8.0 19.3 0.00 0.00 0.00 18 1005.9
20260510035430 26 265 8.0 19.3 0.00 0.00 0.00 18 1005.9
20260510035324 26 274 8.0 19.3 0.00 0.00 0.00 18 1005.9
20260510035222 26 270 8.0 19.3 0.00 0.00 0.00 18 1005.9
20260510035127 26 236 8.0 19.3 0.00 0.00 0.00 18 1006.0
20260510035023 26 229 6.4 19.3 0.00 0.00 0.00 18 1006.0
20260510034923 26 199 6.4 17.7 0.00 0.00 0.00 18 1006.0
20260510034816 26 246 6.4 17.7 0.00 0.00 0.00 18 1006.0
20260510034716 26 273 6.4 17.7 0.00 0.00 0.00 18 1006.0
20260510034617 26 244 6.4 17.7 0.00 0.00 0.00 18 1006.1
20260510034516 26 224 6.4 17.7 0.00 0.00 0.00 18 1006.1
20260510034415 26 248 6.4 17.7 0.00 0.00 0.00 18 1006.1
20260510034310 26 236 6.4 17.7 0.00 0.00 0.00 17 1006.1
20260510034216 26 240 6.4 14.5 0.00 0.00 0.00 17 1005.6
20260510034112 26 246 6.4 14.5 0.00 0.00 0.00 17 1005.6
20260510034011 26 213 8.0 14.5 0.00 0.00 0.00 17 1005.7
20260510033907 26 252 8.0 17.7 0.00 0.00 0.00 17 1005.7
20260510033811 27 243 8.0 17.7 0.00 0.00 0.00 16 1005.8
20260510033710 27 215 8.0 17.7 0.00 0.00 0.00 16 1005.8
20260510033607 27 252 8.0 17.7 0.00 0.00 0.00 16 1005.8
20260510033508 27 234 8.0 17.7 0.00 0.00 0.00 16 1005.9
20260510033358 27 198 9.7 17.7 0.00 0.00 0.00 16 1005.9
20260510033305 27 84 9.7 17.7 0.00 0.00 0.00 15 1006.0
20260510033202 27 182 9.7 17.7 0.00 0.00 0.00 15 1006.0
20260510033056 27 261 11.3 22.5 0.00 0.00 0.00 15 1006.0
20260510033003 27 207 11.3 22.5 0.00 0.00 0.00 15 1006.0
20260510032852 27 194 11.3 22.5 0.00 0.00 0.00 15 1006.1
20260510032748 28 205 11.3 22.5 0.00 0.00 0.00 15 1006.1
20260510032641 28 218 11.3 22.5 0.00 0.00 0.00 14 1005.9
20260510032534 28 256 11.3 22.5 0.00 0.00 0.00 14 1005.9
20260510032438 28 219 11.3 22.5 0.00 0.00 0.00 14 1005.9
20260510032331 27 225 11.3 22.5 0.00 0.00 0.00 15 1005.9
20260510032233 27 222 11.3 22.5 0.00 0.00 0.00 15 1005.8
20260510032134 27 262 11.3 22.5 0.00 0.00 0.00 15 1005.8
20260510032036 27 190 11.3 20.9 0.00 0.00 0.00 15 1005.8
20260510031935 27 206 9.7 20.9 0.00 0.00 0.00 15 1005.8
20260510031820 27 262 9.7 19.3 0.00 0.00 0.00 15 1005.8
20260510031713 27 208 9.7 19.3 0.00 0.00 0.00 15 1005.8
20260510031624 27 252 9.7 19.3 0.00 0.00 0.00 15 1005.8
20260510031520 27 245 9.7 19.3 0.00 0.00 0.00 15 1005.8
20260510031411 27 215 9.7 19.3 0.00 0.00 0.00 15 1005.8
20260510031307 27 211 9.7 19.3 0.00 0.00 0.00 15 1005.8
20260510031209 27 192 9.7 19.3 0.00 0.00 0.00 15 1006.2
20260510031101 27 205 9.7 19.3 0.00 0.00 0.00 15 1006.2
20260510031008 27 209 9.7 19.3 0.00 0.00 0.00 15 1006.2
20260510030904 27 249 9.7 19.3 0.00 0.00 0.00 15 1006.2
20260510030757 27 213 8.0 19.3 0.00 0.00 0.00 15 1006.1
20260510030652 27 202 8.0 19.3 0.00 0.00 0.00 15 1006.1
20260510030557 27 213 8.0 16.1 0.00 0.00 0.00 15 1006.1
20260510030454 27 244 8.0 16.1 0.00 0.00 0.00 16 1006.1
20260510030351 27 238 6.4 16.1 0.00 0.00 0.00 16 1006.1
20260510030242 27 252 6.4 14.5 0.00 0.00 0.00 16 1006.1
20260510030142 27 237 6.4 14.5 0.00 0.00 0.00 16 1006.1
20260510030043 27 193 6.4 14.5 0.00 0.00 0.00 16 1006.1
20260510025940 27 236 6.4 14.5 0.00 0.00 0.00 16 1006.1
20260510025846 27 244 8.0 14.5 0.00 0.00 0.00 16 1006.1
20260510025741 27 212 8.0 14.5 0.00 0.00 0.00 16 1006.1
20260510025637 27 221 8.0 14.5 0.00 0.00 0.00 16 1005.9
20260510025537 27 216 8.0 14.5 0.00 0.00 0.00 15 1005.9
20260510025438 27 209 8.0 14.5 0.00 0.00 0.00 15 1005.9
20260510025333 27 182 6.4 14.5 0.00 0.00 0.00 15 1005.9
20260510025236 27 224 6.4 14.5 0.00 0.00 0.00 15 1005.9
20260510025138 27 231 6.4 14.5 0.00 0.00 0.00 15 1005.9
20260510025043 27 211 6.4 14.5 0.00 0.00 0.00 15 1005.9
20260510024931 27 174 4.8 14.5 0.00 0.00 0.00 15 1006.0
20260510024834 28 219 4.8 14.5 0.00 0.00 0.00 15 1006.0
20260510024738 28 209 3.2 14.5 0.00 0.00 0.00 15 1006.0
20260510024634 28 174 3.2 9.7 0.00 0.00 0.00 16 1006.1
20260510024526 28 196 1.6 9.7 0.00 0.00 0.00 15 1006.0
20260510024427 28 219 1.6 9.7 0.00 0.00 0.00 15 1006.0
20260510024322 28 171 1.6 9.7 0.00 0.00 0.00 15 1006.0
20260510024232 28 184 1.6 8.0 0.00 0.00 0.00 15 1005.8
20260510024131 28 180 1.6 8.0 0.00 0.00 0.00 15 1005.8
20260510024022 28 101 0.0 6.4 0.00 0.00 0.00 15 1005.8
20260510023912 28 161 1.6 6.4 0.00 0.00 0.00 15 1005.8
20260510023814 28 175 1.6 8.0 0.00 0.00 0.00 15 1005.8
20260510023711 28 132 1.6 8.0 0.00 0.00 0.00 15 1005.8
20260510023609 28 161 1.6 8.0 0.00 0.00 0.00 15 1005.8
20260510023510 28 155 1.6 8.0 0.00 0.00 0.00 15 1005.8
20260510023414 28 130 0.0 8.0 0.00 0.00 0.00 15 1005.8
20260510023306 28 149 0.0 8.0 0.00 0.00 0.00 15 1005.8
20260510023201 28 130 0.0 8.0 0.00 0.00 0.00 15 1005.9
20260510023105 28 113 0.0 8.0 0.00 0.00 0.00 16 1005.9
20260510022947 28 140 0.0 8.0 0.00 0.00 0.00 16 1005.9
20260510022844 28 164 0.0 8.0 0.00 0.00 0.00 15 1005.9
20260510022742 28 108 0.0 4.8 0.00 0.00 0.00 15 1005.9
20260510022646 28 197 0.0 4.8 0.00 0.00 0.00 15 1005.6
20260510022539 28 113 0.0 8.0 0.00 0.00 0.00 16 1005.6
20260510022437 28 109 0.0 8.0 0.00 0.00 0.00 16 1005.6
20260510022337 28 117 1.6 8.0 0.00 0.00 0.00 15 1005.6
20260510022242 28 124 1.6 8.0 0.00 0.00 0.00 15 1005.7
20260510022142 28 149 0.0 8.0 0.00 0.00 0.00 15 1005.7
20260510022031 28 133 1.6 8.0 0.00 0.00 0.00 15 1005.7
20260510021938 28 132 1.6 8.0 0.00 0.00 0.00 15 1005.7
20260510021832 28 156 1.6 8.0 0.00 0.00 0.00 15 1005.7
20260510021728 29 160 1.6 8.0 0.00 0.00 0.00 15 1005.8
20260510021621 29 151 1.6 6.4 0.00 0.00 0.00 15 1005.8
20260510021514 29 113 1.6 6.4 0.00 0.00 0.00 15 1005.8
20260510021417 29 96 0.0 6.4 0.00 0.00 0.00 15 1005.8
20260510021310 29 173 0.0 6.4 0.00 0.00 0.00 15 1005.8
20260510021207 29 175 0.0 6.4 0.00 0.00 0.00 15 1006.2
20260510021055 29 113 0.0 6.4 0.00 0.00 0.00 15 1006.4
20260510020954 29 193 0.0 6.4 0.00 0.00 0.00 15 1006.4
20260510020853 29 144 0.0 3.2 0.00 0.00 0.00 15 1006.4
20260510020736 30 115 0.0 3.2 0.00 0.00 0.00 15 1006.4
20260510020637 30 118 0.0 3.2 0.00 0.00 0.00 15 1006.4
20260510020530 30 97 0.0 9.7 0.00 0.00 0.00 15 1006.5
20260510020428 30 148 0.0 9.7 0.00 0.00 0.00 15 1006.5
20260510020321 30 150 1.6 9.7 0.00 0.00 0.00 14 1006.6
20260510020221 30 131 1.6 9.7 0.00 0.00 0.00 15 1006.6
20260510020115 30 103 1.6 9.7 0.00 0.00 0.00 14 1006.6
20260510020013 30 186 3.2 11.3 0.00 0.00 0.00 14 1006.7
20260510015917 30 188 3.2 11.3 0.00 0.00 0.00 14 1006.7
20260510015810 30 166 3.2 11.3 0.00 0.00 0.00 14 1006.7
20260510015746 30 165 4.8 12.9 0.00 0.00 0.00 13 1006.6
20260510015615 30 136 4.8 12.9 0.00 0.00 0.00 13 1006.7
20260510015509 30 143 4.8 12.9 0.00 0.00 0.00 13 1006.7
20260510015409 31 171 4.8 12.9 0.00 0.00 0.00 13 1006.7
20260510015308 31 150 4.8 12.9 0.00 0.00 0.00 13 1006.7
20260510015209 31 180 4.8 12.9 0.00 0.00 0.00 13 1006.7
20260510015106 31 207 4.8 12.9 0.00 0.00 0.00 13 1006.7
20260510015013 31 202 3.2 12.9 0.00 0.00 0.00 13 1006.8
20260510014901 31 180 3.2 12.9 0.00 0.00 0.00 13 1006.8
20260510014751 31 180 3.2 12.9 0.00 0.00 0.00 13 1006.8
20260510014648 31 171 1.6 12.9 0.00 0.00 0.00 13 1006.8
20260510014549 31 168 1.6 12.9 0.00 0.00 0.00 13 1006.8
20260510014442 31 98 1.6 12.9 0.00 0.00 0.00 13 1006.8
20260510014337 31 193 1.6 12.9 0.00 0.00 0.00 13 1006.8
20260510014239 31 173 1.6 9.7 0.00 0.00 0.00 13 1006.8
20260510014144 31 146 3.2 11.3 0.00 0.00 0.00 13 1006.5
20260510014026 31 140 3.2 11.3 0.00 0.00 0.00 13 1006.5
20260510013928 31 120 3.2 11.3 0.00 0.00 0.00 13 1006.5
20260510013830 31 179 4.8 11.3 0.00 0.00 0.00 13 1006.6
20260510013719 31 210 4.8 11.3 0.00 0.00 0.00 13 1006.6
20260510013616 31 223 4.8 11.3 0.00 0.00 0.00 13 1006.6
20260510013521 31 203 4.8 11.3 0.00 0.00 0.00 13 1006.6
20260510013416 31 191 4.8 11.3 0.00 0.00 0.00 13 1006.6
20260510013315 31 64 4.8 11.3 0.00 0.00 0.00 13 1006.7
20260510013211 32 119 3.2 9.7 0.00 0.00 0.00 13 1006.7
20260510013106 32 129 3.2 11.3 0.00 0.00 0.00 13 1006.8
20260510013007 32 123 4.8 11.3 0.00 0.00 0.00 13 1006.8
20260510012912 32 186 3.2 11.3 0.00 0.00 0.00 13 1006.8
20260510012808 32 196 3.2 11.3 0.00 0.00 0.00 13 1006.8
20260510012706 32 191 3.2 11.3 0.00 0.00 0.00 13 1006.6
20260510012608 32 189 3.2 11.3 0.00 0.00 0.00 13 1006.6
20260510012501 32 210 3.2 11.3 0.00 0.00 0.00 13 1006.6
20260510012355 32 215 3.2 11.3 0.00 0.00 0.00 13 1006.6
20260510012257 32 158 3.2 11.3 0.00 0.00 0.00 13 1006.7
20260510012152 32 190 3.2 11.3 0.00 0.00 0.00 13 1006.7
20260510012050 32 202 3.2 11.3 0.00 0.00 0.00 13 1006.7
20260510011949 32 137 3.2 9.7 0.00 0.00 0.00 13 1006.7
20260510011850 32 161 1.6 9.7 0.00 0.00 0.00 13 1006.7
20260510011819 32 196 1.6 9.7 0.00 0.00 0.00 13 1006.7
20260510011639 32 84 1.6 9.7 0.00 0.00 0.00 13 1006.8
20260510011537 32 132 1.6 8.0 0.00 0.00 0.00 13 1006.8
20260510011441 32 149 1.6 8.0 0.00 0.00 0.00 13 1006.8
20260510011342 33 123 3.2 8.0 0.00 0.00 0.00 13 1006.8
20260510011234 33 88 3.2 8.0 0.00 0.00 0.00 13 1006.8
20260510011139 33 198 3.2 9.7 0.00 0.00 0.00 13 1007.5
20260510011025 33 206 3.2 11.3 0.00 0.00 0.00 13 1007.5
20260510010932 33 143 3.2 11.3 0.00 0.00 0.00 13 1007.5
20260510010820 33 144 3.2 11.3 0.00 0.00 0.00 13 1007.5
20260510010720 33 143 3.2 11.3 0.00 0.00 0.00 13 1007.5
20260510010610 33 155 4.8 11.3 0.00 0.00 0.00 13 1007.5
20260510010413 33 156 3.2 11.3 0.00 0.00 0.00 12 1007.5
20260510010306 33 113 3.2 11.3 0.00 0.00 0.00 12 1007.6
20260510010200 33 205 3.2 11.3 0.00 0.00 0.00 12 1007.6
20260510010058 33 162 3.2 9.7 0.00 0.00 0.00 12 1007.6
20260510010001 33 178 3.2 9.7 0.00 0.00 0.00 12 1007.7
20260510005858 33 147 3.2 9.7 0.00 0.00 0.00 12 1007.7
20260510005744 33 116 3.2 9.7 0.00 0.00 0.00 12 1007.7
20260510005640 33 162 3.2 9.7 0.00 0.00 0.00 12 1007.7
20260510005536 33 148 3.2 8.0 0.00 0.00 0.00 12 1007.7
20260510005446 33 128 3.2 8.0 0.00 0.00 0.00 12 1007.7
20260510005335 33 125 3.2 8.0 0.00 0.00 0.00 12 1007.8
20260510005233 33 66 3.2 8.0 0.00 0.00 0.00 11 1007.8
20260510005132 33 117 3.2 8.0 0.00 0.00 0.00 11 1007.8
20260510005022 33 139 3.2 8.0 0.00 0.00 0.00 11 1007.8
20260510004926 33 157 3.2 8.0 0.00 0.00 0.00 11 1007.8
20260510004811 33 111 3.2 8.0 0.00 0.00 0.00 12 1007.8
20260510004707 33 120 3.2 9.7 0.00 0.00 0.00 12 1007.8
20260510004606 33 143 3.2 9.7 0.00 0.00 0.00 11 1007.8
20260510004516 33 46 3.2 9.7 0.00 0.00 0.00 11 1007.8
20260510004359 33 154 3.2 11.3 0.00 0.00 0.00 12 1007.8
20260510004258 33 130 3.2 11.3 0.00 0.00 0.00 12 1007.8
20260510004202 33 142 4.8 12.9 0.00 0.00 0.00 12 1007.7
20260510004058 33 140 4.8 12.9 0.00 0.00 0.00 12 1007.7
20260510003951 33 124 6.4 12.9 0.00 0.00 0.00 11 1007.7
20260510003844 33 184 6.4 12.9 0.00 0.00 0.00 11 1007.7
20260510003748 33 177 6.4 12.9 0.00 0.00 0.00 12 1007.7
20260510003636 33 110 6.4 12.9 0.00 0.00 0.00 11 1007.6
20260510003527 33 130 6.4 12.9 0.00 0.00 0.00 11 1007.6
20260510003420 33 185 6.4 12.9 0.00 0.00 0.00 11 1007.7
20260510003317 33 105 6.4 12.9 0.00 0.00 0.00 11 1007.7
20260510003214 33 74 6.4 12.9 0.00 0.00 0.00 11 1007.7
20260510003108 33 169 6.4 12.9 0.00 0.00 0.00 11 1007.7
20260510003011 34 138 6.4 17.7 0.00 0.00 0.00 11 1007.8
20260510002912 34 210 6.4 17.7 0.00 0.00 0.00 11 1007.8
20260510002808 34 206 6.4 17.7 0.00 0.00 0.00 10 1007.9
20260510002708 34 72 6.4 17.7 0.00 0.00 0.00 10 1008.1
20260510002607 34 178 8.0 17.7 0.00 0.00 0.00 10 1008.1
20260510002507 34 163 8.0 17.7 0.00 0.00 0.00 10 1008.0
20260510002403 34 96 8.0 17.7 0.00 0.00 0.00 10 1008.1
20260510002306 34 178 8.0 17.7 0.00 0.00 0.00 10 1008.0
20260510002200 34 164 8.0 17.7 0.00 0.00 0.00 10 1008.1
20260510002100 34 216 8.0 17.7 0.00 0.00 0.00 10 1008.1
20260510001955 34 72 8.0 16.1 0.00 0.00 0.00 10 1008.0
20260510001844 34 209 8.0 16.1 0.00 0.00 0.00 10 1008.0
20260510001742 34 212 8.0 16.1 0.00 0.00 0.00 10 1008.0
20260510001639 34 126 8.0 16.1 0.00 0.00 0.00 10 1008.1
20260510001532 34 188 8.0 16.1 0.00 0.00 0.00 10 1008.1
20260510001437 34 202 8.0 16.1 0.00 0.00 0.00 10 1008.1
20260510001333 34 132 8.0 16.1 0.00 0.00 0.00 10 1008.0
20260510001233 34 190 8.0 16.1 0.00 0.00 0.00 9 1008.1
20260510001135 34 200 8.0 17.7 0.00 0.00 0.00 9 1008.6
20260510001029 34 166 8.0 17.7 0.00 0.00 0.00 10 1008.7
20260510000926 34 151 8.0 17.7 0.00 0.00 0.00 10 1008.7
20260510000821 34 148 9.7 20.9 0.00 0.00 0.00 10 1008.7
20260510000713 34 211 9.7 20.9 0.00 0.00 0.00 10 1008.7
20260510000616 34 208 9.7 20.9 0.00 0.00 0.00 10 1008.7
20260510000515 34 179 9.7 20.9 0.00 0.00 0.00 9 1008.7
20260510000408 35 180 9.7 20.9 0.00 0.00 0.00 9 1008.7
20260510000312 35 196 9.7 20.9 0.00 0.00 0.00 9 1008.7
20260510000211 35 162 9.7 20.9 0.00 0.00 0.00 9 1008.7
20260510000117 35 215 9.7 20.9 0.00 0.00 0.00 9 1008.7
20260510000017 35 170 8.0 20.9 0.00 0.00 0.00 9 1008.7
20260509235905 35 155 8.0 19.3 0.00 0.00 0.00 9 1008.7
20260509235805 35 169 8.0 19.3 0.00 0.00 0.00 10 1008.8
20260509235711 35 182 8.0 19.3 0.00 0.00 0.00 10 1008.8
20260509235607 35 198 8.0 19.3 0.00 0.00 0.00 10 1008.8
20260509235508 35 171 8.0 16.1 0.00 0.00 0.00 10 1008.8
20260509235406 35 200 8.0 16.1 0.00 0.00 0.00 10 1008.8
20260509235307 35 205 9.7 22.5 0.00 0.00 0.00 9 1008.8
20260509235209 35 215 8.0 22.5 0.00 0.00 0.00 9 1008.8
20260509235059 34 187 8.0 22.5 0.00 0.00 0.00 10 1008.8
20260509234954 34 188 8.0 22.5 0.00 0.00 0.00 10 1008.8
20260509234840 34 236 8.0 22.5 0.00 0.00 0.00 9 1008.8
20260509234742 34 184 9.7 22.5 0.00 0.00 0.00 9 1008.8
20260509234639 35 214 9.7 22.5 0.00 0.00 0.00 9 1008.8
20260509234538 35 195 9.7 22.5 0.00 0.00 0.00 9 1008.8
20260509234434 35 166 9.7 22.5 0.00 0.00 0.00 9 1008.8
20260509234333 35 219 8.0 17.7 0.00 0.00 0.00 9 1008.8
20260509234232 35 173 8.0 17.7 0.00 0.00 0.00 9 1008.9
20260509234133 35 202 8.0 17.7 0.00 0.00 0.00 9 1008.9
20260509234030 35 84 8.0 17.7 0.00 0.00 0.00 9 1008.9
20260509233929 35 191 8.0 17.7 0.00 0.00 0.00 9 1008.9
20260509233828 35 133 8.0 17.7 0.00 0.00 0.00 9 1008.9
20260509233723 35 170 8.0 17.7 0.00 0.00 0.00 9 1008.9
20260509233625 35 155 8.0 16.1 0.00 0.00 0.00 9 1008.9
20260509233527 35 157 8.0 16.1 0.00 0.00 0.00 9 1008.9
20260509233421 35 109 8.0 16.1 0.00 0.00 0.00 10 1008.9
20260509233317 35 194 9.7 16.1 0.00 0.00 0.00 9 1008.9
20260509233208 35 198 9.7 17.7 0.00 0.00 0.00 9 1008.9
20260509233110 35 187 9.7 17.7 0.00 0.00 0.00 9 1008.9
20260509233013 35 126 9.7 17.7 0.00 0.00 0.00 9 1008.9
20260509232914 35 186 9.7 17.7 0.00 0.00 0.00 9 1008.9
20260509232814 35 227 8.0 17.7 0.00 0.00 0.00 9 1008.9
20260509232716 35 216 8.0 17.7 0.00 0.00 0.00 9 1009.2
20260509232613 35 176 8.0 17.7 0.00 0.00 0.00 9 1009.2
20260509232510 35 173 8.0 17.7 0.00 0.00 0.00 9 1009.2
20260509232413 35 185 8.0 17.7 0.00 0.00 0.00 9 1009.2
20260509232312 35 175 8.0 17.7 0.00 0.00 0.00 9 1009.2
20260509232212 35 190 8.0 17.7 0.00 0.00 0.00 9 1009.2
20260509232103 35 208 8.0 17.7 0.00 0.00 0.00 9 1009.2
20260509232001 35 174 8.0 17.7 0.00 0.00 0.00 10 1009.1
20260509231903 35 219 8.0 17.7 0.00 0.00 0.00 9 1009.1
20260509231756 35 236 8.0 17.7 0.00 0.00 0.00 9 1009.1
20260509231654 35 229 8.0 17.7 0.00 0.00 0.00 9 1009.2
20260509231556 35 229 6.4 14.5 0.00 0.00 0.00 9 1009.2
20260509231454 35 211 6.4 14.5 0.00 0.00 0.00 9 1009.2
20260509231351 35 221 6.4 14.5 0.00 0.00 0.00 9 1009.2
20260509231249 35 252 6.4 14.5 0.00 0.00 0.00 9 1009.2
20260509231151 35 163 6.4 14.5 0.00 0.00 0.00 9 1009.1
20260509231040 35 250 4.8 14.5 0.00 0.00 0.00 9 1009.1
20260509230945 35 182 4.8 11.3 0.00 0.00 0.00 9 1009.1
20260509230840 35 213 4.8 11.3 0.00 0.00 0.00 9 1009.1
20260509230740 35 126 4.8 11.3 0.00 0.00 0.00 9 1009.1
20260509230640 35 74 4.8 11.3 0.00 0.00 0.00 10 1009.2
20260509230537 35 82 4.8 12.9 0.00 0.00 0.00 9 1009.1
20260509230434 35 123 6.4 12.9 0.00 0.00 0.00 9 1009.1
20260509230332 35 196 6.4 12.9 0.00 0.00 0.00 9 1009.1
20260509230239 35 215 6.4 12.9 0.00 0.00 0.00 9 1009.1
20260509230124 35 254 8.0 19.3 0.00 0.00 0.00 9 1009.1
20260509230020 35 221 8.0 19.3 0.00 0.00 0.00 9 1009.1
20260509225932 35 213 9.7 19.3 0.00 0.00 0.00 9 1009.1
20260509225821 35 257 9.7 19.3 0.00 0.00 0.00 9 1009.0
20260509225722 35 269 9.7 19.3 0.00 0.00 0.00 9 1009.1
20260509225610 35 196 9.7 19.3 0.00 0.00 0.00 9 1009.1
20260509225507 35 223 9.7 19.3 0.00 0.00 0.00 9 1009.1
20260509225409 35 182 11.3 19.3 0.00 0.00 0.00 9 1009.1
20260509225311 35 225 11.3 19.3 0.00 0.00 0.00 9 1009.1
20260509225213 35 219 9.7 19.3 0.00 0.00 0.00 9 1009.2
20260509225104 35 248 9.7 19.3 0.00 0.00 0.00 9 1009.2
20260509225003 35 212 9.7 19.3 0.00 0.00 0.00 9 1009.2
20260509224902 35 190 9.7 17.7 0.00 0.00 0.00 9 1009.2
20260509224812 35 215 9.7 19.3 0.00 0.00 0.00 9 1009.2
20260509224646 35 190 9.7 19.3 0.00 0.00 0.00 9 1009.2
20260509224546 35 199 9.7 19.3 0.00 0.00 0.00 9 1009.2
20260509224446 35 225 9.7 19.3 0.00 0.00 0.00 9 1009.2
20260509224345 35 205 9.7 19.3 0.00 0.00 0.00 10 1009.1
20260509224244 35 242 9.7 19.3 0.00 0.00 0.00 9 1009.1
20260509224149 35 261 9.7 19.3 0.00 0.00 0.00 9 1009.2
20260509224040 35 290 9.7 19.3 0.00 0.00 0.00 9 1009.2
20260509223944 35 244 9.7 19.3 0.00 0.00 0.00 9 1009.2
20260509223841 35 170 8.0 19.3 0.00 0.00 0.00 9 1009.2
20260509223735 35 128 8.0 16.1 0.00 0.00 0.00 9 1009.3
20260509223639 35 219 8.0 16.1 0.00 0.00 0.00 9 1009.3
20260509223533 35 234 8.0 16.1 0.00 0.00 0.00 9 1009.3
20260509223435 35 242 8.0 16.1 0.00 0.00 0.00 9 1009.3
20260509223326 35 136 6.4 14.5 0.00 0.00 0.00 9 1009.3
20260509223228 35 221 6.4 14.5 0.00 0.00 0.00 10 1009.5
20260509223126 35 252 6.4 14.5 0.00 0.00 0.00 10 1009.3
20260509223025 35 239 6.4 14.5 0.00 0.00 0.00 9 1009.3
20260509222921 35 242 4.8 14.5 0.00 0.00 0.00 9 1009.5
20260509222817 35 286 4.8 14.5 0.00 0.00 0.00 9 1009.5
20260509222719 35 197 4.8 11.3 0.00 0.00 0.00 9 1009.6
20260509222611 35 171 6.4 20.9 0.00 0.00 0.00 9 1009.6
20260509222509 35 221 6.4 20.9 0.00 0.00 0.00 9 1009.6
20260509222414 35 169 6.4 20.9 0.00 0.00 0.00 9 1009.6
20260509222346 35 203 4.8 20.9 0.00 0.00 0.00 9 1009.6
20260509222313 35 203 4.8 20.9 0.00 0.00 0.00 9 1009.6
20260509222209 35 229 4.8 20.9 0.00 0.00 0.00 10 1009.7
20260509222105 35 261 4.8 20.9 0.00 0.00 0.00 10 1009.7
20260509222011 35 218 6.4 20.9 0.00 0.00 0.00 9 1009.6
20260509221909 35 211 6.4 20.9 0.00 0.00 0.00 9 1009.6
20260509221804 35 55 6.4 20.9 0.00 0.00 0.00 9 1009.5
20260509221705 35 145 6.4 20.9 0.00 0.00 0.00 9 1009.6
20260509221554 35 194 6.4 17.7 0.00 0.00 0.00 10 1009.6
20260509221457 35 279 6.4 17.7 0.00 0.00 0.00 10 1009.6
20260509221419 35 294 6.4 17.7 0.00 0.00 0.00 9 1009.6
20260509221239 35 266 6.4 17.7 0.00 0.00 0.00 9 1009.6
20260509221136 35 248 6.4 17.7 0.00 0.00 0.00 9 1009.6
20260509221038 35 275 6.4 17.7 0.00 0.00 0.00 10 1009.6
20260509220939 35 257 6.4 17.7 0.00 0.00 0.00 10 1009.6
20260509220837 35 258 6.4 17.7 0.00 0.00 0.00 10 1009.6
20260509220730 35 284 6.4 14.5 0.00 0.00 0.00 10 1009.6
20260509220635 35 283 6.4 14.5 0.00 0.00 0.00 10 1009.6
20260509220534 35 216 6.4 14.5 0.00 0.00 0.00 10 1009.5
20260509220427 35 178 6.4 14.5 0.00 0.00 0.00 11 1009.5
20260509220329 35 242 8.0 17.7 0.00 0.00 0.00 11 1009.5
20260509220220 35 173 8.0 20.9 0.00 0.00 0.00 10 1009.3
20260509220130 35 246 9.7 20.9 0.00 0.00 0.00 10 1009.3
20260509220027 35 143 11.3 20.9 0.00 0.00 0.00 10 1009.3
20260509215922 35 132 9.7 20.9 0.00 0.00 0.00 10 1009.3
20260509215826 34 192 9.7 20.9 0.00 0.00 0.00 10 1009.2
20260509215717 34 104 9.7 20.9 0.00 0.00 0.00 10 1009.3
20260509215618 34 168 9.7 20.9 0.00 0.00 0.00 10 1009.3
20260509215509 34 132 9.7 20.9 0.00 0.00 0.00 10 1009.3
20260509215415 34 105 9.7 20.9 0.00 0.00 0.00 10 1009.3
20260509215314 34 107 8.0 20.9 0.00 0.00 0.00 10 1009.2
20260509215214 34 146 8.0 20.9 0.00 0.00 0.00 10 1009.3
20260509215108 34 72 8.0 14.5 0.00 0.00 0.00 10 1009.3
20260509215015 34 144 8.0 14.5 0.00 0.00 0.00 11 1009.3
20260509214913 34 131 6.4 14.5 0.00 0.00 0.00 11 1009.3
20260509214810 34 106 6.4 14.5 0.00 0.00 0.00 11 1009.2
20260509214719 34 83 6.4 14.5 0.00 0.00 0.00 11 1009.3
20260509214607 34 86 6.4 14.5 0.00 0.00 0.00 11 1009.3
20260509214512 34 103 8.0 14.5 0.00 0.00 0.00 10 1009.3
20260509214412 34 77 8.0 14.5 0.00 0.00 0.00 10 1009.3
20260509214309 34 89 6.4 14.5 0.00 0.00 0.00 10 1009.3
20260509214206 34 97 6.4 14.5 0.00 0.00 0.00 11 1009.2
20260509214111 34 98 4.8 12.9 0.00 0.00 0.00 11 1009.2
20260509214003 34 149 4.8 12.9 0.00 0.00 0.00 11 1009.2
20260509213900 34 113 4.8 12.9 0.00 0.00 0.00 11 1009.2
20260509213750 34 118 3.2 12.9 0.00 0.00 0.00 10 1009.2
20260509213655 35 101 3.2 12.9 0.00 0.00 0.00 10 1009.3
20260509213552 35 119 3.2 12.9 0.00 0.00 0.00 10 1009.3
20260509213453 35 115 1.6 9.7 0.00 0.00 0.00 10 1009.3
20260509213359 35 134 1.6 9.7 0.00 0.00 0.00 10 1009.3
20260509213242 35 200 1.6 11.3 0.00 0.00 0.00 11 1009.3
20260509213147 35 82 1.6 16.1 0.00 0.00 0.00 11 1009.5
20260509213041 35 84 3.2 16.1 0.00 0.00 0.00 10 1009.5
20260509212940 35 124 4.8 17.7 0.00 0.00 0.00 10 1009.5
20260509212837 35 122 4.8 17.7 0.00 0.00 0.00 11 1009.5
20260509212740 35 142 4.8 17.7 0.00 0.00 0.00 11 1009.5
20260509212637 35 109 4.8 17.7 0.00 0.00 0.00 11 1010.3
20260509212538 35 113 4.8 17.7 0.00 0.00 0.00 10 1010.3
20260509212440 35 200 6.4 17.7 0.00 0.00 0.00 10 1010.3
20260509212341 35 168 6.4 17.7 0.00 0.00 0.00 10 1010.3
20260509212238 35 185 6.4 17.7 0.00 0.00 0.00 10 1010.3
20260509212131 35 192 4.8 17.7 0.00 0.00 0.00 10 1010.3
20260509212026 35 153 4.8 17.7 0.00 0.00 0.00 10 1010.2
20260509211934 35 171 4.8 11.3 0.00 0.00 0.00 10 1010.2
20260509211829 35 156 4.8 11.3 0.00 0.00 0.00 10 1010.2
20260509211728 34 109 4.8 11.3 0.00 0.00 0.00 10 1010.1
20260509211632 34 118 4.8 11.3 0.00 0.00 0.00 11 1010.1
20260509211521 34 192 3.2 11.3 0.00 0.00 0.00 10 1010.0
20260509211425 34 121 3.2 11.3 0.00 0.00 0.00 11 1010.0
20260509211322 34 107 4.8 11.3 0.00 0.00 0.00 11 1010.0
20260509211222 33 192 4.8 11.3 0.00 0.00 0.00 11 1009.9
20260509211124 33 94 4.8 12.9 0.00 0.00 0.00 11 1009.9
20260509211020 33 122 4.8 12.9 0.00 0.00 0.00 11 1009.9
20260509210914 33 78 4.8 12.9 0.00 0.00 0.00 11 1009.9
20260509210811 33 69 4.8 12.9 0.00 0.00 0.00 11 1009.9
20260509210706 33 59 4.8 12.9 0.00 0.00 0.00 11 1009.9
20260509210608 33 11 4.8 12.9 0.00 0.00 0.00 11 1009.9
20260509210457 33 28 6.4 12.9 0.00 0.00 0.00 11 1009.9
20260509210349 34 65 6.4 12.9 0.00 0.00 0.00 11 1010.0
20260509210250 34 92 6.4 12.9 0.00 0.00 0.00 11 1010.0
20260509210149 34 51 4.8 12.9 0.00 0.00 0.00 12 1010.0
20260509210047 34 74 4.8 12.9 0.00 0.00 0.00 12 1010.1
20260509205953 34 61 4.8 14.5 0.00 0.00 0.00 11 1010.1
20260509205841 34 60 4.8 14.5 0.00 0.00 0.00 11 1010.1
20260509205753 34 205 6.4 14.5 0.00 0.00 0.00 10 1010.1
20260509205638 34 202 6.4 14.5 0.00 0.00 0.00 10 1010.2
20260509205538 34 191 6.4 14.5 0.00 0.00 0.00 11 1010.2
20260509205438 34 105 6.4 14.5 0.00 0.00 0.00 11 1010.2
20260509205341 34 98 6.4 14.5 0.00 0.00 0.00 11 1010.2
20260509205236 34 100 6.4 14.5 0.00 0.00 0.00 10 1010.2
20260509205141 34 132 8.0 14.5 0.00 0.00 0.00 10 1010.2
20260509205037 34 98 8.0 14.5 0.00 0.00 0.00 12 1010.2
20260509204943 34 211 8.0 12.9 0.00 0.00 0.00 12 1010.2
20260509204835 34 73 6.4 12.9 0.00 0.00 0.00 12 1010.2
20260509204730 34 71 6.4 12.9 0.00 0.00 0.00 12 1010.2
20260509204636 34 117 4.8 12.9 0.00 0.00 0.00 12 1010.3
20260509204527 34 135 4.8 12.9 0.00 0.00 0.00 11 1010.3
20260509204429 35 77 4.8 12.9 0.00 0.00 0.00 11 1010.3
20260509204332 34 120 3.2 11.3 0.00 0.00 0.00 12 1010.3
20260509204223 34 164 3.2 11.3 0.00 0.00 0.00 11 1010.6
20260509204110 34 211 1.6 11.3 0.00 0.00 0.00 11 1010.6
20260509204014 34 204 1.6 8.0 0.00 0.00 0.00 12 1010.5
20260509203912 33 166 1.6 8.0 0.00 0.00 0.00 13 1010.5
20260509203814 33 76 1.6 8.0 0.00 0.00 0.00 12 1010.3
20260509203717 33 71 3.2 9.7 0.00 0.00 0.00 12 1010.3
20260509203608 33 300 3.2 9.7 0.00 0.00 0.00 12 1010.3
20260509203509 33 289 3.2 9.7 0.00 0.00 0.00 11 1010.2
20260509203409 33 275 3.2 9.7 0.00 0.00 0.00 11 1010.2
20260509203321 33 279 4.8 12.9 0.00 0.00 0.00 11 1010.2
20260509203158 33 284 4.8 12.9 0.00 0.00 0.00 11 1010.3
20260509203057 33 337 4.8 12.9 0.00 0.00 0.00 12 1010.3
20260509202958 33 74 4.8 12.9 0.00 0.00 0.00 12 1010.5
20260509202855 34 74 6.4 14.5 0.00 0.00 0.00 12 1010.5
20260509202759 34 117 4.8 14.5 0.00 0.00 0.00 12 1010.6
20260509202645 34 120 4.8 14.5 0.00 0.00 0.00 12 1010.9
20260509202540 34 154 4.8 14.5 0.00 0.00 0.00 12 1010.9
20260509202442 33 216 4.8 14.5 0.00 0.00 0.00 12 1010.8
20260509202337 33 186 4.8 14.5 0.00 0.00 0.00 12 1010.8
20260509202246 33 99 4.8 14.5 0.00 0.00 0.00 12 1010.7
20260509202137 33 103 4.8 14.5 0.00 0.00 0.00 12 1010.7
20260509202038 33 105 4.8 14.5 0.00 0.00 0.00 12 1010.7
20260509201937 33 184 4.8 14.5 0.00 0.00 0.00 13 1010.7
20260509201842 33 121 4.8 12.9 0.00 0.00 0.00 13 1010.7
20260509201735 33 87 4.8 12.9 0.00 0.00 0.00 13 1010.7
20260509201629 33 68 4.8 12.9 0.00 0.00 0.00 14 1010.7
20260509201525 33 205 4.8 12.9 0.00 0.00 0.00 12 1010.6
20260509201416 33 195 4.8 12.9 0.00 0.00 0.00 13 1010.6
20260509201321 33 143 4.8 12.9 0.00 0.00 0.00 13 1010.6
20260509201219 33 117 4.8 12.9 0.00 0.00 0.00 13 1010.7
20260509201120 33 91 4.8 12.9 0.00 0.00 0.00 13 1010.7
20260509201017 33 283 6.4 12.9 0.00 0.00 0.00 12 1010.7
20260509200918 33 287 6.4 12.9 0.00 0.00 0.00 13 1010.7
20260509200802 33 69 6.4 12.9 0.00 0.00 0.00 13 1010.8
20260509200717 33 55 6.4 12.9 0.00 0.00 0.00 13 1010.8
20260509200610 33 74 6.4 12.9 0.00 0.00 0.00 13 1010.8
20260509200515 33 89 6.4 11.3 0.00 0.00 0.00 13 1010.8
20260509200408 33 117 6.4 11.3 0.00 0.00 0.00 13 1010.8
20260509200309 33 66 6.4 11.3 0.00 0.00 0.00 13 1010.8
20260509200210 33 145 6.4 11.3 0.00 0.00 0.00 13 1010.8
20260509200106 33 107 6.4 11.3 0.00 0.00 0.00 13 1010.8
20260509200005 33 205 6.4 11.3 0.00 0.00 0.00 12 1010.8
20260509195905 33 103 6.4 11.3 0.00 0.00 0.00 12 1010.8
20260509195810 33 66 6.4 11.3 0.00 0.00 0.00 12 1010.8
20260509195651 33 197 6.4 11.3 0.00 0.00 0.00 12 1011.2
20260509195553 33 87 6.4 11.3 0.00 0.00 0.00 12 1011.2
20260509195449 33 105 6.4 11.3 0.00 0.00 0.00 13 1011.1
20260509195353 32 105 6.4 11.3 0.00 0.00 0.00 12 1011.1
20260509195247 32 138 6.4 12.9 0.00 0.00 0.00 12 1011.1
20260509195141 32 130 6.4 12.9 0.00 0.00 0.00 12 1011.1
20260509195038 32 89 8.0 14.5 0.00 0.00 0.00 12 1011.0
20260509194938 32 90 6.4 14.5 0.00 0.00 0.00 12 1011.0
20260509194833 32 78 6.4 14.5 0.00 0.00 0.00 12 1011.0
20260509194732 32 55 6.4 14.5 0.00 0.00 0.00 12 1011.0
20260509194636 32 115 6.4 14.5 0.00 0.00 0.00 13 1011.0
20260509194531 32 143 8.0 14.5 0.00 0.00 0.00 13 1010.9
20260509194430 32 157 8.0 14.5 0.00 0.00 0.00 13 1010.9
20260509194325 32 82 6.4 14.5 0.00 0.00 0.00 13 1010.9
20260509194219 32 88 6.4 14.5 0.00 0.00 0.00 13 1010.6
20260509194117 32 74 6.4 14.5 0.00 0.00 0.00 13 1010.6
20260509194011 32 128 6.4 14.5 0.00 0.00 0.00 13 1010.5
20260509193912 32 88 6.4 14.5 0.00 0.00 0.00 14 1010.6
20260509193802 32 56 6.4 14.5 0.00 0.00 0.00 14 1010.6
20260509193707 32 94 6.4 14.5 0.00 0.00 0.00 14 1010.6
20260509193600 32 78 6.4 12.9 0.00 0.00 0.00 14 1010.7
20260509193502 32 74 6.4 12.9 0.00 0.00 0.00 14 1010.6
20260509193408 32 80 6.4 12.9 0.00 0.00 0.00 13 1010.7
20260509193256 32 102 6.4 12.9 0.00 0.00 0.00 13 1010.7
20260509193156 32 136 6.4 12.9 0.00 0.00 0.00 14 1010.7
20260509193052 33 78 6.4 12.9 0.00 0.00 0.00 13 1010.8
20260509192953 33 90 6.4 16.1 0.00 0.00 0.00 13 1010.9
20260509192855 33 86 4.8 16.1 0.00 0.00 0.00 13 1011.0
20260509192747 33 193 4.8 16.1 0.00 0.00 0.00 14 1011.0
20260509192643 33 134 4.8 16.1 0.00 0.00 0.00 14 1011.3
20260509192545 33 188 4.8 16.1 0.00 0.00 0.00 15 1011.3
20260509192438 33 205 4.8 16.1 0.00 0.00 0.00 14 1011.2
20260509192341 33 215 4.8 16.1 0.00 0.00 0.00 15 1011.3
20260509192238 33 203 4.8 16.1 0.00 0.00 0.00 15 1011.3
20260509192136 33 136 4.8 16.1 0.00 0.00 0.00 16 1011.2
20260509192041 33 110 4.8 16.1 0.00 0.00 0.00 16 1011.2
20260509191939 33 186 4.8 11.3 0.00 0.00 0.00 15 1011.1
20260509191842 32 108 3.2 11.3 0.00 0.00 0.00 16 1011.1
20260509191736 32 183 4.8 11.3 0.00 0.00 0.00 16 1011.0
20260509191638 32 94 4.8 14.5 0.00 0.00 0.00 16 1011.0
20260509191538 32 113 4.8 14.5 0.00 0.00 0.00 16 1011.0
20260509191432 32 145 3.2 14.5 0.00 0.00 0.00 16 1011.0
20260509191331 32 150 3.2 14.5 0.00 0.00 0.00 18 1011.0
20260509191232 32 94 3.2 14.5 0.00 0.00 0.00 18 1011.1
20260509191134 32 89 3.2 14.5 0.00 0.00 0.00 18 1011.1
20260509191035 32 62 3.2 14.5 0.00 0.00 0.00 16 1011.0
20260509190932 32 113 3.2 14.5 0.00 0.00 0.00 16 1011.1
20260509190825 32 115 3.2 14.5 0.00 0.00 0.00 16 1011.1
20260509190728 33 105 3.2 14.5 0.00 0.00 0.00 17 1011.2
20260509190627 33 82 1.6 11.3 0.00 0.00 0.00 17 1011.2
20260509190517 32 164 1.6 11.3 0.00 0.00 0.00 17 1011.2
20260509190416 32 211 3.2 11.3 0.00 0.00 0.00 16 1011.1
20260509190310 32 211 3.2 11.3 0.00 0.00 0.00 16 1011.0
20260509190158 32 194 3.2 12.9 0.00 0.00 0.00 17 1011.0
20260509190055 32 76 3.2 12.9 0.00 0.00 0.00 16 1011.0
20260509185943 32 77 3.2 12.9 0.00 0.00 0.00 16 1011.0
20260509185846 32 80 3.2 12.9 0.00 0.00 0.00 17 1011.0
20260509185737 32 209 3.2 12.9 0.00 0.00 0.00 17 1011.0
20260509185640 32 211 3.2 12.9 0.00 0.00 0.00 17 1011.1
20260509185540 32 209 3.2 12.9 0.00 0.00 0.00 17 1011.1
20260509185439 32 214 3.2 12.9 0.00 0.00 0.00 17 1011.1
20260509185351 32 115 3.2 12.9 0.00 0.00 0.00 17 1011.1
20260509185240 32 140 3.2 12.9 0.00 0.00 0.00 18 1011.1
20260509185138 32 93 3.2 11.3 0.00 0.00 0.00 18 1011.1
20260509185040 32 148 3.2 11.3 0.00 0.00 0.00 17 1011.1
20260509184941 32 162 3.2 11.3 0.00 0.00 0.00 17 1011.1
20260509184837 32 116 3.2 11.3 0.00 0.00 0.00 17 1011.1
20260509184740 32 188 3.2 11.3 0.00 0.00 0.00 17 1011.1
20260509184631 32 192 3.2 11.3 0.00 0.00 0.00 18 1011.1
20260509184532 32 98 3.2 11.3 0.00 0.00 0.00 18 1011.1
20260509184428 32 198 3.2 11.3 0.00 0.00 0.00 17 1011.0
20260509184321 31 221 4.8 11.3 0.00 0.00 0.00 19 1011.0
20260509184225 31 167 4.8 11.3 0.00 0.00 0.00 19 1011.4
20260509184120 31 191 4.8 11.3 0.00 0.00 0.00 19 1011.3
20260509184010 31 132 3.2 11.3 0.00 0.00 0.00 20 1011.3
20260509183913 31 75 3.2 11.3 0.00 0.00 0.00 19 1011.3
20260509183810 31 109 4.8 11.3 0.00 0.00 0.00 18 1011.3
20260509183714 31 63 3.2 11.3 0.00 0.00 0.00 18 1011.4
20260509183606 31 76 3.2 11.3 0.00 0.00 0.00 18 1011.4
20260509183506 31 174 3.2 11.3 0.00 0.00 0.00 18 1011.4
20260509183410 31 178 4.8 12.9 0.00 0.00 0.00 19 1011.4
20260509183302 31 166 3.2 12.9 0.00 0.00 0.00 19 1011.3
20260509183202 31 130 3.2 12.9 0.00 0.00 0.00 21 1011.3
20260509183100 31 89 4.8 12.9 0.00 0.00 0.00 21 1011.2
20260509182955 31 140 4.8 12.9 0.00 0.00 0.00 20 1011.2
20260509182858 31 121 4.8 12.9 0.00 0.00 0.00 19 1011.1
20260509182751 31 92 4.8 12.9 0.00 0.00 0.00 19 1011.1
20260509182648 31 141 4.8 12.9 0.00 0.00 0.00 19 1011.1
20260509182551 31 84 4.8 12.9 0.00 0.00 0.00 20 1011.1
20260509182449 31 100 4.8 12.9 0.00 0.00 0.00 19 1011.2
20260509182348 31 92 3.2 12.9 0.00 0.00 0.00 19 1011.2
20260509182242 31 114 3.2 12.9 0.00 0.00 0.00 20 1011.2
20260509182145 31 78 3.2 12.9 0.00 0.00 0.00 20 1011.2
20260509182042 31 100 3.2 12.9 0.00 0.00 0.00 19 1011.3
20260509181944 31 121 3.2 12.9 0.00 0.00 0.00 19 1011.3
20260509181836 31 165 3.2 12.9 0.00 0.00 0.00 20 1011.3
20260509181745 31 74 3.2 12.9 0.00 0.00 0.00 20 1011.3
20260509181634 31 108 3.2 12.9 0.00 0.00 0.00 20 1011.3
20260509181529 31 130 3.2 12.9 0.00 0.00 0.00 19 1011.3
20260509181427 31 145 4.8 12.9 0.00 0.00 0.00 19 1011.3
20260509181324 31 136 3.2 14.5 0.00 0.00 0.00 19 1011.3
20260509181212 31 105 4.8 14.5 0.00 0.00 0.00 19 1011.8
20260509181111 31 202 3.2 14.5 0.00 0.00 0.00 19 1011.7
20260509181016 31 122 3.2 14.5 0.00 0.00 0.00 20 1011.7
20260509180902 31 237 3.2 14.5 0.00 0.00 0.00 20 1011.7
20260509180759 31 187 3.2 14.5 0.00 0.00 0.00 19 1011.7
20260509180655 31 216 3.2 14.5 0.00 0.00 0.00 19 1011.7
20260509180557 31 84 3.2 14.5 0.00 0.00 0.00 19 1011.7
20260509180448 31 124 3.2 14.5 0.00 0.00 0.00 20 1011.7
20260509180346 31 213 1.6 14.5 0.00 0.00 0.00 20 1011.7
20260509180250 31 130 1.6 12.9 0.00 0.00 0.00 20 1011.7
20260509180142 31 84 1.6 12.9 0.00 0.00 0.00 20 1011.6
20260509180039 31 120 3.2 12.9 0.00 0.00 0.00 20 1011.6
20260509175939 30 196 3.2 12.9 0.00 0.00 0.00 20 1011.4
20260509175838 30 203 4.8 14.5 0.00 0.00 0.00 21 1011.4
20260509175739 30 110 4.8 14.5 0.00 0.00 0.00 22 1011.4
20260509175635 30 207 4.8 14.5 0.00 0.00 0.00 21 1011.6
20260509175524 30 124 4.8 14.5 0.00 0.00 0.00 21 1011.6
20260509175417 30 129 4.8 14.5 0.00 0.00 0.00 21 1011.6
20260509175314 30 59 4.8 14.5 0.00 0.00 0.00 22 1011.6
20260509175209 30 77 4.8 14.5 0.00 0.00 0.00 22 1011.6
20260509175119 30 171 4.8 14.5 0.00 0.00 0.00 21 1011.4
20260509175015 30 97 4.8 14.5 0.00 0.00 0.00 21 1011.6
20260509174909 30 137 4.8 12.9 0.00 0.00 0.00 22 1011.6
20260509174815 30 200 4.8 12.9 0.00 0.00 0.00 22 1011.4
20260509174707 30 204 4.8 12.9 0.00 0.00 0.00 22 1011.4
20260509174559 30 114 4.8 12.9 0.00 0.00 0.00 22 1011.4
20260509174501 30 109 3.2 12.9 0.00 0.00 0.00 22 1011.4
20260509174355 30 217 3.2 12.9 0.00 0.00 0.00 23 1011.4
20260509174247 29 207 4.8 12.9 0.00 0.00 0.00 22 1011.3
20260509174146 30 192 3.2 12.9 0.00 0.00 0.00 22 1011.7
20260509174047 30 108 3.2 12.9 0.00 0.00 0.00 22 1011.7
20260509173943 30 118 3.2 12.9 0.00 0.00 0.00 22 1011.7
20260509173845 29 53 3.2 12.9 0.00 0.00 0.00 22 1011.7
20260509173740 29 309 3.2 12.9 0.00 0.00 0.00 23 1011.7
20260509173640 29 157 3.2 12.9 0.00 0.00 0.00 23 1011.6
20260509173543 29 111 3.2 12.9 0.00 0.00 0.00 23 1011.6
20260509173441 29 163 3.2 12.9 0.00 0.00 0.00 22 1011.6
20260509173333 29 58 3.2 12.9 0.00 0.00 0.00 22 1011.6
20260509173234 29 111 3.2 12.9 0.00 0.00 0.00 23 1011.6
20260509173133 29 186 4.8 12.9 0.00 0.00 0.00 24 1011.6
20260509173104 29 186 3.2 12.9 0.00 0.00 0.00 24 1011.6
20260509172929 29 221 3.2 12.9 0.00 0.00 0.00 24 1011.6
20260509172820 29 190 4.8 11.3 0.00 0.00 0.00 24 1011.4
20260509172716 28 126 4.8 12.9 0.00 0.00 0.00 24 1011.9
20260509172611 28 140 4.8 12.9 0.00 0.00 0.00 23 1011.8
20260509172509 28 113 4.8 12.9 0.00 0.00 0.00 23 1011.7
20260509172410 28 107 4.8 12.9 0.00 0.00 0.00 23 1011.7
20260509172311 28 128 6.4 12.9 0.00 0.00 0.00 23 1011.7
20260509172214 28 72 6.4 12.9 0.00 0.00 0.00 24 1011.8
20260509172108 28 71 6.4 12.9 0.00 0.00 0.00 23 1011.7
20260509172014 28 193 6.4 12.9 0.00 0.00 0.00 23 1011.7
20260509171911 28 170 6.4 12.9 0.00 0.00 0.00 23 1011.6
20260509171748 28 209 6.4 12.9 0.00 0.00 0.00 23 1011.6
20260509171650 28 186 6.4 12.9 0.00 0.00 0.00 23 1011.4
20260509171547 27 44 6.4 12.9 0.00 0.00 0.00 23 1011.4
20260509171440 27 157 6.4 12.9 0.00 0.00 0.00 24 1011.3
20260509171342 27 96 6.4 12.9 0.00 0.00 0.00 24 1011.4
20260509171241 28 67 6.4 12.9 0.00 0.00 0.00 24 1011.4
20260509171140 27 125 6.4 12.9 0.00 0.00 0.00 24 1011.4
20260509171042 27 128 6.4 12.9 0.00 0.00 0.00 24 1011.4
20260509170936 28 92 6.4 12.9 0.00 0.00 0.00 24 1011.4
20260509170826 28 112 6.4 16.1 0.00 0.00 0.00 24 1011.4
20260509170733 28 125 4.8 16.1 0.00 0.00 0.00 23 1011.4
20260509170624 28 161 4.8 16.1 0.00 0.00 0.00 24 1011.4
20260509170518 28 198 4.8 16.1 0.00 0.00 0.00 24 1011.4
20260509170426 27 146 4.8 16.1 0.00 0.00 0.00 24 1011.4
20260509170316 27 122 4.8 16.1 0.00 0.00 0.00 25 1011.3
20260509170219 27 158 4.8 16.1 0.00 0.00 0.00 25 1011.3
20260509170112 27 93 4.8 16.1 0.00 0.00 0.00 24 1011.3
20260509170013 27 138 4.8 16.1 0.00 0.00 0.00 23 1011.3
20260509165909 27 128 4.8 16.1 0.00 0.00 0.00 24 1011.3
20260509165810 27 76 3.2 14.5 0.00 0.00 0.00 24 1011.3
20260509165707 27 210 4.8 14.5 0.00 0.00 0.00 25 1011.4